                ,  0.209,  0.306,  0.403,  0.500,  0.597,  0.694,  0.791,  0.888,  0.985,  1.082,  1.179,  1.276,  1.373,  1.470,  1.567,  1.665,  1.762,  1.859,  1.956,  2.053,  2.150,  2.247,  2.344,  2.441,  2.538,  2.635,  2.732,  2.829,  2.926,  3.023,  3.120,  3.217,  3.314,  3.411,  3.508,  3.605,  3.702,  3.799,  3.896,  3.993,  4.090,  4.187,  4.284,  4.381,  4.478,  4.575,  4.672,  4.769,  4.866,  4.964,  5.061,  5.158,  5.255,  5.352,  5.449,  5.546,  5.643,  5.740,  5.837,  5.934,  6.031,  6.128,  6.225,  6.322,  6.419,  6.516,  6.613,  6.710,  6.807,  6.904,  7.001,  7.098,  7.195,  7.292,  7.389,  7.486,  7.583,  7.680,  7.777,  7.874,  7.971,  8.068,  8.165,  8.263,  8.360,  8.457,  8.554,  8.651,  8.748,  8.845,  8.942,  9.039,  9.136,  9.233,  9.330,  9.427,  9.524,  9.621
2011/03/14 00:00,   13.5,    8.2,   18.4,   29.8,   13.0,   19.9,   18.3,   16.4,   15.0,   18.8,   20.5,   18.8,   19.3,   14.3,   25.1,   11.3,   10.3,    7.0,    5.7,   17.4,   23.4,   26.4,   25.9,   24.9,  999.0,   27.1,  999.0,   -1.5,   -5.1,   -3.2,   -1.6,   -3.9,   -3.4,    6.8,   -3.1,   -5.5,   -2.4,   -7.5,   -4.2,   -8.5,   -7.5,   -9.0,  -12.2,   -8.7,   -7.6,   -9.2,  -10.1,  999.0,   -9.5,  999.0,  -15.3,  -12.5,  -14.6,  -14.8,  999.0,   -9.8,  -15.1,   -9.1,  -11.8,  -12.9,  -11.3,   -9.1,   -7.8,   -8.6,   -7.6,   -7.4,   -6.5,   -4.8,   -6.0,   -3.5,   -5.3,   -4.3,   -4.3,   -3.8,   -3.1,   -3.8,   -3.8,   -4.5,   -6.4,   -6.7,   -6.0,   -6.9,   -8.5,   -7.6,   -8.7,   -8.3,   -8.8,   -8.0,   -8.1,   -8.0,   -7.2,   -7.4,   -7.1,   -6.9,   -6.6,   -6.3,   -6.1,   -5.4
2011/03/14 00:10,  999.0,   20.0,   20.5,   22.7,   15.1,   11.1,   10.0,   15.3,    8.5,    7.7,    7.2,   14.6,   16.5,   14.3,   14.1,   18.2,   26.3,   18.5,   26.9,   17.3,   27.2,   25.4,   23.3,   23.8,  999.0,  999.0,  999.0,   -6.9,    0.2,    0.4,    9.1,   -0.3,    2.2,   -1.4,    2.7,    9.9,    2.5,    0.9,    2.4,    0.8,    2.0,   -0.2,    0.3,    0.4,  999.0,   -1.3,    3.0,    4.2,    8.0,   -5.1,   -5.4,   -4.3,   -3.7,  999.0,   -1.0,   -0.4,  999.0,    2.5,  999.0,  999.0,    3.3,    4.8,  999.0,  999.0,  999.0,    2.2,  999.0,   -3.3,  999.0,   -2.7,  999.0,    0.6,  999.0,  999.0,  999.0,   -3.2,  999.0,  999.0,  999.0,  999.0,  999.0,  999.0,  999.0,   -2.2,  999.0,  999.0,    3.0,    0.5,    3.3,    2.5,    2.1,    1.9,  999.0,    0.5,    0.9,    1.1,    0.5,   -0.5
2011/03/14 00:20,   -4.7,   -5.9,   -6.9,   -6.5,   -7.9,    7.4,    3.8,   11.3,   14.5,   14.5,   21.8,  999.0,  999.0,  999.0,  999.0,   20.5,   20.9,   21.0,  999.0,    9.3,   25.6,    4.9,    6.3,   21.9,   20.9,   22.0,  999.0,   22.5,   22.8,   24.0,   22.8,   22.9,   22.4,   24.0,   24.0,  999.0,  999.0,  999.0,  999.0,  999.0,  999.0,  999.0,  999.0,  999.0,   -2.9,   -2.8,   -4.1,   -5.1,  999.0,  999.0,  999.0,  999.0,  999.0,   -8.2,  999.0,   -5.8,   -7.9,   -8.9,   -6.5,   -6.1,   -6.0,   -6.3,   -5.6,   -6.1,   -7.9,   -7.7,   -5.2,   -5.9,  999.0,   -4.1,   -3.8,  999.0,  999.0,  999.0,  999.0,  999.0,  999.0,  999.0,  999.0,  999.0,   -4.1,  999.0,  999.0,   -3.9,  999.0,  999.0,  999.0,  999.0,  999.0,  999.0,  999.0,  999.0,  999.0,  -17.3,  999.0,  999.0,  999.0,  999.0
2011/03/14 00:30,   -6.8,   -8.1,   -8.6,   -9.6,  -10.9,  -11.1,  -11.2,  -11.9,   -7.7,   -6.8,   -3.7,   -5.5,   -5.8,   -7.1,  -12.7,   -6.1,   -3.4,   -8.5,   -2.6,   -2.8,   -2.8,   -4.6,   -3.3,   -4.7,   -4.5,   -2.9,  -12.4,  999.0,   14.8,   19.1,   18.6,   17.7,   24.3,   23.8,   24.3,   24.4,   13.6,   12.9,   -8.6,   -5.7,   -7.6,   -8.3,   -8.7,   -8.4,   -9.4,  -10.0,   -7.1,   -7.7,   -8.3,   -9.1,   -8.7,   -8.8,   -8.7,   -8.4,   -9.4,   -9.5,   -9.8,   -9.9,   -9.9,   -8.9,   -7.9,   -7.6,   -6.5,   -6.3,   -5.9,   -5.4,   -4.4,   -4.3,   -4.7,   -4.1,   -4.5,   -4.9,   -5.3,   -6.6,   -6.4,   -6.8,   -6.9,   -7.1,   -7.4,   -7.0,   -7.5,   -7.5,   -7.7,   -7.6,   -7.5,   -7.9,   -8.2,   -8.6,   -8.8,   -8.9,   -9.0,   -9.1,   -9.2,   -9.4,   -9.4,   -9.5,   -9.6,   -9.6
2011/03/14 00:40,   -8.7,   13.6,   13.2,   12.1,   12.0,   10.2,   23.5,   23.3,   21.9,   21.1,   20.5,   20.5,   20.3,   20.8,   22.1,  999.0,  999.0,  999.0,   -9.9,   -9.9,   -4.6,  -10.2,   -2.1,  999.0,  999.0,   22.1,   21.6,   21.6,   22.0,   22.7,   22.4,   23.1,   23.4,   24.6,   24.8,   24.9,   24.9,   24.9,   25.4,   21.3,   24.1,   23.1,   23.6,  999.0,  999.0,   -7.3,   -8.0,   -8.1,   -6.9,   -7.1,   -6.7,   -7.1,   -7.4,   -7.5,   -7.9,   -7.4,   -6.8,   -6.6,   -6.4,   -6.2,   -5.8,   -5.3,   -5.0,   -4.8,   -4.6,   -4.6,   -4.7,   -4.8,   -5.2,   -5.4,   -6.1,   -6.4,   -6.8,   -6.9,   -7.1,   -7.5,   -7.8,   -7.9,   -8.0,   -7.9,   -8.0,   -7.9,   -7.9,   -7.5,   -7.6,   -7.3,   -7.2,   -7.1,   -7.0,   -6.9,   -7.0,   -7.1,   -7.1,   -7.0,   -7.1,   -7.1,   -7.2,   -7.3
2011/03/14 00:50,  999.0,   24.7,   24.7,   24.3,   23.8,   23.8,   23.9,   23.6,   22.9,   22.1,   21.6,   21.2,   21.5,   22.2,   22.2,   22.2,   21.9,   22.9,   23.3,   23.7,   23.4,   23.5,   22.8,   22.9,   23.2,   22.6,   21.6,   21.6,   21.8,   22.7,   21.3,   20.0,   21.4,   21.8,   21.7,   21.5,   20.4,   21.3,   19.2,   19.3,   20.8,  999.0,  999.0,  999.0,  999.0,  999.0,   -9.6,   -9.2,   -9.2,   -9.1,   -9.5,   -9.2,   -9.2,   -8.9,   -8.8,   -8.3,   -7.7,   -7.2,   -7.0,   -7.0,   -6.2,   -5.8,   -5.4,   -5.1,   -4.9,   -4.4,   -4.3,   -4.6,   -4.5,   -4.4,   -4.2,   -4.1,   -4.4,   -4.7,   -4.9,   -5.2,   -5.3,   -5.3,   -5.5,   -6.2,   -6.4,   -6.7,   -7.0,   -7.3,   -7.4,   -7.4,   -7.4,   -7.3,   -7.0,   -6.9,   -6.7,   -6.5,   -6.4,   -6.4,   -6.4,   -6.7,   -6.8,   -7.1
2011/03/14 01:00,   -9.7,   -1.3,   -1.8,   -1.7,   -1.9,    3.5,    3.2,    2.6,    5.8,    8.6,   10.5,   22.5,   22.7,   22.7,   22.5,   22.5,   21.5,   21.6,   21.8,   22.0,   22.2,   23.4,   23.1,   23.8,   24.7,   24.6,  999.0,  999.0,   25.5,   24.1,   25.0,   24.4,   23.3,   24.0,  999.0,   23.6,   23.4,   23.8,   23.7,   23.2,   22.8,   20.8,  999.0,  999.0,  -10.6,  999.0,  999.0,  -11.3,  -10.6,  -10.5,  -10.4,  -10.0,  -10.2,  -10.1,   -9.8,   -9.1,   -8.8,   -8.7,   -8.7,   -8.9,   -8.8,   -8.9,   -9.0,   -9.0,   -8.7,   -8.5,   -8.6,   -8.5,   -8.4,   -8.3,   -8.4,   -8.6,   -8.8,   -9.1,   -9.3,   -9.4,   -9.3,   -9.3,   -9.0,   -9.0,   -8.9,   -9.1,   -8.8,   -8.9,   -8.8,   -9.3,   -9.2,   -9.4,   -9.3,   -9.2,   -9.1,   -9.0,   -8.9,   -9.1,   -8.6,   -8.3,   -7.9,   -7.7
2011/03/14 01:10,   -9.2,   -9.8,   -9.9,   -9.8,  -10.4,  -11.3,  -11.8,  -11.9,  -12.2,  -12.1,  999.0,  999.0,  999.0,  999.0,   21.9,   21.9,   21.8,   21.6,   21.4,   21.4,   21.3,   22.0,   22.4,   22.7,   22.9,   22.4,   23.0,   23.6,   23.4,   23.4,   23.6,   23.3,   23.5,   22.8,   22.9,   22.7,   12.6,    8.4,   22.6,   22.0,  999.0,  999.0,  999.0,  999.0,  999.0,  999.0,  -10.7,  -10.5,  -10.4,  -10.2,  -10.0,  -10.0,  -10.3,  -10.5,  -10.6,  -10.4,  -10.1,  -10.0,   -9.9,  -10.0,  -10.1,  -10.5,  -10.9,  -11.2,  -11.3,  -11.4,  -11.5,  -11.3,  -11.2,  -11.3,  -11.1,  -11.0,  -10.7,  -10.5,  -10.3,  -10.2,  -10.3,  -10.1,   -9.7,   -9.5,   -9.2,   -9.0,   -8.9,   -8.8,   -8.7,   -8.6,   -8.7,   -8.7,   -8.8,   -8.9,   -9.0,   -9.1,   -8.9,   -8.9,   -8.5,   -8.1,   -7.8,   -7.5
2011/03/14 01:20,   -7.4,   -8.7,   -9.0,   -9.1,   -8.7,   -3.5,   -9.7,   -4.3,   -4.7,   -4.8,    0.3,   -4.0,   -3.0,  -11.5,  999.0,  999.0,  -11.9,    2.4,    6.0,    0.6,    6.0,    2.9,    6.5,    3.0,    6.4,    6.5,    7.1,    7.8,   11.3,    8.2,    8.8,    8.6,    5.1,    9.2,    6.2,    9.6,   10.8,   10.1,    6.8,    4.1,  999.0,  999.0,  999.0,  999.0,  999.0,  999.0,  999.0,   -9.9,  -10.1,  -10.0,   -9.9,   -9.9,  -10.0,   -9.6,   -9.7,  -10.2,  -11.0,  -11.3,  -11.6,  -11.8,  -11.9,  -12.0,  -12.1,  -12.1,  -12.0,  -11.8,  -11.7,  -11.6,  -11.5,  -11.2,  -11.1,  -10.9,  -10.7,  -10.4,  -10.2,   -9.8,   -9.6,   -9.3,   -9.2,   -9.4,   -9.8,  -10.0,  -10.1,  -10.1,   -9.7,   -8.9,   -8.6,   -8.5,   -8.4,   -8.3,   -8.4,   -8.1,   -7.5,   -6.5,   -5.5,   -4.5,   -4.0,   -3.8
2011/03/14 01:30,   -6.4,   -7.7,   -8.4,   -8.8,   -9.1,   -9.0,   -8.5,   -9.7,  -10.1,  -10.6,  -10.4,  -10.7,  -10.7,  -10.6,  -11.1,  -11.2,  -10.8,  -11.1,  -10.7,  -11.0,  -11.1,  -10.0,  -10.2,  -10.8,  -10.3,   -9.6,   -9.1,   -9.4,   -9.1,   -9.2,  999.0,  999.0,   -6.2,   -7.0,   -6.0,   -6.8,  999.0,  999.0,   -5.4,   -5.2,   -6.9,  999.0,  999.0,  999.0,   -8.0,   -8.8,   -8.5,   -8.5,   -8.8,   -8.7,   -8.6,   -9.4,  -10.2,  -10.7,  -11.0,  -11.4,  -11.8,  -11.9,  -11.8,  -11.9,  -12.0,  -12.0,  -11.9,  -11.9,  -12.0,  -12.0,  -11.8,  -11.6,  -11.4,  -11.4,  -11.4,  -11.4,  -11.6,  -11.5,  -11.4,  -11.0,  -10.8,  -10.5,  -10.4,  -10.7,  -10.9,  -10.9,  -10.9,  -10.9,  -10.6,   -9.7,   -9.3,   -9.1,   -9.0,   -8.9,   -9.0,   -8.5,   -7.3,   -6.2,   -5.2,   -3.9,   -3.2,   -0.9
2011/03/14 01:40,   -4.3,   -5.1,   -5.6,   -5.5,   -5.9,   -6.5,   -6.9,   -8.6,   -9.0,   -9.0,   -9.3,   -9.5,   -9.9,   -9.5,   -9.0,   -8.3,   -8.3,   -8.8,   -9.3,   -9.1,   -9.3,   -8.3,   -7.8,   -7.8,   -8.2,   -8.6,   -7.7,   -8.2,   -8.3,   -7.6,   -6.8,   -8.2,   -8.5,   -8.9,   -9.1,   -9.6,   -8.5,   -8.8,   -7.9,   -8.7,   -7.2,   -6.4,   -8.4,  999.0,  999.0,  999.0,  999.0,   -7.5,   -7.6,   -8.0,   -8.5,   -9.3,  -10.1,  -11.5,  -12.5,  -12.9,  -12.7,  -12.4,  -12.4,  -12.4,  -12.4,  -12.2,  -12.0,  -11.9,  -11.6,  -11.2,  -11.0,  -10.9,  -11.0,  -11.0,  -10.9,  -11.2,  -11.5,  -11.7,  -11.9,  -11.7,  -11.5,  -11.1,  -10.7,  -10.7,  -10.7,  -10.6,  -10.5,  -10.4,  -10.0,   -9.5,   -9.4,   -9.4,   -9.5,   -9.6,   -9.6,   -9.2,   -8.6,   -7.8,   -7.1,   -5.6,   -4.5,   -4.1
2011/03/14 01:50,   -4.5,   -5.4,   -5.1,   -4.8,   -5.2,   -6.2,   -7.0,   -7.4,   -7.8,   -7.8,   -7.9,   -8.4,   -9.4,   -9.7,   -9.3,   -9.0,   -8.9,   -8.6,   -9.4,  -10.9,  -10.7,  -10.2,   -8.8,   -0.3,   -0.8,    7.8,   13.3,   13.8,    3.0,    8.6,    9.4,    9.7,    3.2,   13.9,   12.0,   19.1,   12.8,   23.8,    3.5,  999.0,  999.0,  999.0,  999.0,  999.0,  999.0,  999.0,   -6.4,   -7.0,   -7.0,   -7.4,   -7.9,   -8.6,   -9.4,   -9.9,  -10.3,  -10.5,  -10.4,  -10.5,  -10.5,  -10.4,  -10.2,   -9.9,   -9.9,   -9.7,   -9.2,   -8.9,   -8.7,   -8.9,   -9.2,   -8.8,   -8.4,   -8.3,   -8.8,   -9.5,   -9.9,  -10.0,  -10.0,  -10.2,  -10.1,   -9.6,   -9.2,   -9.1,   -9.0,   -9.2,   -9.1,   -9.0,   -9.0,   -9.2,   -9.5,   -9.4,   -9.3,   -9.1,   -8.6,   -7.7,   -6.9,   -6.1,   -5.6,   -5.0
2011/03/14 02:00,   -3.2,   -3.6,   -3.3,   -3.9,   -4.1,   -3.1,   -4.7,   -6.1,   -6.1,   -7.3,   -8.5,   -8.8,   -4.3,   -4.6,   -1.6,   -6.5,   -6.9,   -0.4,    1.9,    5.1,    4.4,    1.5,    0.3,    0.9,   -1.4,    0.7,   -0.4,    1.1,    0.1,    2.1,   -7.7,   -1.3,   -1.1,   -1.7,   -1.6,    8.6,   -1.4,   -0.8,    3.2,   -7.7,   -7.6,   -8.3,   -9.3,  -10.8,  999.0,  999.0,  -10.1,  -10.6,   -9.8,   -9.0,   -9.5,   -9.8,   -9.7,  -10.1,  -10.2,  -10.2,   -9.7,   -9.4,   -9.1,   -8.5,   -8.3,   -8.3,   -7.9,   -7.5,   -7.0,   -6.7,   -6.5,   -6.8,   -6.9,   -6.8,   -6.7,   -6.6,   -6.8,   -7.2,   -7.4,   -7.4,   -7.3,   -7.4,   -7.4,   -7.8,   -7.8,   -7.8,   -8.1,   -8.1,   -8.0,   -7.5,   -7.2,   -7.5,   -7.7,   -7.9,   -8.0,   -7.9,   -7.7,   -7.3,   -7.0,   -6.4,   -5.8,   -5.2
2011/03/14 02:10,  999.0,  999.0,   -2.8,   -2.3,   -2.7,   -1.5,   -3.0,   -2.5,   -2.3,   -3.0,   -3.9,   -4.4,   -4.9,   -5.9,   -5.1,   -3.0,   -1.0,   -3.8,   -4.6,   -4.5,  999.0,   -3.8,  999.0,  999.0,  999.0,  999.0,    0.6,  999.0,   -1.5,  999.0,    2.1,   -2.1,  999.0,  999.0,  999.0,   -2.9,   -7.8,   -9.7,   -8.4,   -9.1,   -9.2,   -6.1,   -9.6,   -8.8,  999.0,  -10.9,  999.0,  999.0,  -12.9,  -13.8,  -12.0,  -10.9,  -11.9,  -11.4,  -12.6,  -11.3,  -10.2,  -11.3,  -10.6,   -9.6,   -9.0,   -8.9,   -8.6,   -8.2,   -8.5,   -7.7,   -7.2,   -6.8,   -6.8,   -6.8,   -7.2,   -7.3,   -7.4,   -7.3,   -7.6,   -8.2,   -8.9,   -9.4,   -9.3,   -9.1,   -8.5,   -8.4,   -8.4,   -7.9,   -8.0,   -8.2,   -7.7,   -8.7,   -9.2,   -9.8,  -10.0,  -10.5,  -10.1,  -10.9,  -11.0,  -10.6,  -11.3,  -10.9
2011/03/14 02:20,  999.0,   -4.3,    7.8,   -4.5,   -4.4,   -2.6,    7.4,    3.0,    2.7,    3.4,    3.8,    3.9,    2.8,    2.4,    2.0,    0.5,   -1.2,   -1.4,   -1.9,   -4.2,   -1.9,   -4.2,   -4.4,   -4.8,   -4.5,   -3.2,   -7.1,   -6.6,   -4.1,  999.0,  999.0,   -4.2,  999.0,  999.0,   -7.9,   -4.5,  999.0,   -6.9,   -4.9,   -7.0,  999.0,  999.0,  999.0,  999.0,   -3.6,   -5.7,  999.0,  999.0,  999.0,  999.0,  999.0,  999.0,  999.0,   -7.0,   -8.0,  999.0,  -14.0,   -7.5,   -8.2,   -9.7,  -10.0,  -10.6,  -10.6,  999.0,  -10.2,  -11.1,  -10.7,  -10.8,  999.0,   -9.4,   -9.6,   -9.3,  -10.4,  -10.7,  -10.7,   -8.6,  -10.2,  -10.4,  -12.8,  -11.5,  -12.1,  -12.3,  -13.2,  999.0,  -11.0,   -8.4,  -10.5,  -10.3,  -10.8,  -11.1,  -11.2,  -10.4,   -9.8,  -10.0,   -9.6,   -9.5,   -9.3,   -9.7
2011/03/14 02:30,  999.0,  999.0,    9.4,    8.4,   10.5,    9.2,   19.4,   13.6,    7.2,    6.9,    9.3,    4.5,    6.2,    6.7,   10.9,   -0.9,    7.5,    7.3,   11.3,   10.8,    9.7,    9.1,    6.3,    3.3,    3.8,    8.6,    4.4,    3.3,    4.4,    3.0,    2.8,    3.1,   -4.3,   -6.3,   -5.8,   -5.6,   -5.7,   -4.6,   -6.8,   -6.9,   -3.6,   -3.1,   -2.0,   -5.7,   -6.2,   -2.1,   -2.9,  999.0,    0.1,  999.0,   -2.1,   -0.9,  999.0,   -0.0,   -3.8,   -3.5,   -2.5,   -5.6,  999.0,   -8.1,  -10.1,  -10.6,  999.0,   -9.0,  -11.3,  -11.6,   -8.8,  -10.3,   -9.6,   -9.9,  -10.2,   -9.3,   -7.2,   -7.9,   -9.0,  -10.5,  -10.3,  -10.2,  -10.8,  -12.3,  -11.9,  -12.1,  -11.6,  -11.3,  -11.1,  -10.4,   -9.6,   -9.7,   -8.7,   -8.3,   -8.5,   -8.7,   -9.1,   -9.0,   -9.5,   -9.7,  -10.0,  -10.3
2011/03/14 02:40,   -2.9,  999.0,    3.5,    5.9,    0.9,    5.6,    3.3,   -5.0,    1.7,   -0.2,    0.1,   -0.6,   -2.2,   -6.5,   -3.6,   -3.5,   -4.4,   -5.1,   -6.6,   -7.8,   -7.5,   -6.9,   -7.0,   -8.4,   -7.9,  -10.8,  -10.9,  -10.8,  -10.5,  -10.5,  -10.8,  999.0,  999.0,   -9.4,  -12.9,   -8.9,  -11.9,  -10.3,  999.0,  -10.2,  -11.8,  999.0,   -9.1,   -6.8,  -12.1,   -9.8,   -6.9,   -7.6,   -8.7,   -4.5,   -8.4,   -6.6,   -1.2,   -6.5,   -2.2,   -1.6,   -6.5,  999.0,   -6.3,   -7.1,   -5.8,   -7.3,   -8.0,   -8.1,   -7.4,   -6.6,   -6.1,   -6.5,   -5.8,   -5.9,   -4.3,   -3.3,   -1.2,   -1.7,   -1.7,   -2.2,   -2.8,   -3.2,   -3.9,   -5.2,   -5.6,   -4.6,   -4.4,   -6.2,   -5.3,   -5.6,   -6.1,   -6.5,   -7.4,   -7.7,   -9.1,   -9.9,   -9.9,   -9.7,  -10.1,  -10.5,  -10.8,  -11.6
2011/03/14 02:50,  999.0,   -4.2,   -5.8,   -5.5,   -6.2,  999.0,    9.2,   12.1,   14.6,   19.3,   15.3,   11.6,   12.2,   25.0,   24.8,    7.2,    8.4,    8.2,    8.4,    2.4,    2.5,    8.3,    8.0,    6.4,    8.6,   -7.4,   -8.1,   -8.5,   -8.0,   -9.4,  999.0,  999.0,  999.0,  999.0,  999.0,  999.0,  999.0,  999.0,  999.0,  999.0,  999.0,  999.0,  999.0,   -9.4,  -10.4,   -9.9,  -11.1,  -11.0,  999.0,  -10.9,  -11.0,  -10.6,  -10.4,  -10.1,   -9.2,   -9.1,   -9.0,   -7.6,   -7.9,   -7.2,   -7.7,   -8.0,   -8.0,   -8.1,   -7.4,   -7.9,  999.0,   -9.3,  999.0,  999.0,   -9.2,   -9.6,   -8.5,   -7.9,   -6.1,   -6.3,   -8.4,   -9.1,   -8.7,   -9.3,  -10.1,   -8.7,   -9.3,  -10.0,  -10.3,   -9.6,  -11.3,  -11.9,  -11.2,  -11.4,  -11.5,  -11.4,  -11.3,  -11.3,  -11.3,  -10.9,  -11.2,   -9.6
2011/03/14 03:00,   -3.1,   -2.5,   -3.3,    1.9,   -4.8,    3.7,    6.5,   10.2,    1.6,    0.7,    0.5,    1.9,    1.5,   -0.1,   -1.8,   -1.4,   -1.3,   -0.8,   -0.8,   -1.2,   -0.4,   -0.6,   -1.0,    9.1,  999.0,  999.0,  999.0,   24.7,   24.4,   25.2,   25.6,   25.5,   24.6,   25.7,   25.0,   24.1,   24.4,   24.3,   24.1,   22.4,  999.0,  999.0,  999.0,  999.0,  999.0,  -10.9,  -11.0,  -11.7,  -11.8,  -11.8,  -12.1,  -12.1,  -12.2,  -12.5,  -12.8,  -12.9,  -13.3,  -13.5,  -13.7,  -13.9,  -13.6,  -13.3,  -13.0,  -12.6,  -12.5,  -12.5,  -12.6,  -12.7,  -12.8,  -12.7,  -12.4,  -11.7,  -10.9,  -10.5,  -10.6,  -10.4,  -10.2,  -10.1,   -9.8,   -9.3,   -9.3,   -9.4,   -9.8,  -10.2,  -10.4,  -10.6,  -10.5,  -10.7,  -10.6,  -10.9,  -11.3,  -11.6,  -12.1,  -12.8,  -12.9,  -12.5,  -11.9,  -11.5
2011/03/14 03:10,   -1.8,   -2.0,   -3.0,   -4.1,   -5.5,   -6.0,   -6.5,   -6.9,   -7.8,   -8.3,   -8.2,   -8.5,   -8.3,   -8.1,   -8.2,   -8.2,   -8.0,   -8.0,   -7.6,   -7.8,   -7.5,   -7.3,   -7.3,   -7.4,  999.0,   -7.2,    9.8,   19.6,   19.2,   19.9,   22.6,   16.5,   19.9,   19.3,   19.1,   15.7,   19.2,   25.8,    8.8,  999.0,  999.0,  999.0,  999.0,  999.0,  999.0,  -11.9,  -12.5,  -12.8,  -12.9,  -13.6,  -14.5,  -15.3,  -15.6,  -15.5,  -15.2,  -15.2,  -15.0,  -14.9,  -14.8,  -14.7,  -14.5,  -14.4,  -13.8,  -13.7,  -13.5,  -13.4,  -13.5,  -13.6,  -13.8,  -13.5,  -13.6,  -13.4,  -12.8,  -12.4,  -12.0,  -11.8,  -11.9,  -11.9,  -11.9,  -11.6,  -11.5,  -11.5,  -11.7,  -11.8,  -12.0,  -12.1,  -12.0,  -12.0,  -11.9,  -12.1,  -12.3,  -12.6,  -12.8,  -12.9,  -13.1,  -12.9,  -12.6,  -12.4
2011/03/14 03:20,   -1.4,   -1.8,   -2.9,   -4.4,   -5.3,   -6.2,   -7.0,   -7.5,   -8.0,   -8.6,   -9.2,   -9.1,   -8.9,   -8.4,   -8.9,   -9.0,   -8.7,   -8.9,   -7.9,   -7.9,   -7.6,   -7.0,   -7.3,   -8.0,   -8.1,   -7.9,   -7.6,   -8.1,   -8.2,   -7.0,   -6.3,   -7.4,   -7.3,   -8.2,    0.1,   -7.4,    1.6,    1.2,   -2.7,   -8.8,  999.0,  -10.5,  999.0,  999.0,  999.0,  -12.0,  -13.0,  -13.7,  -14.2,  -14.4,  -14.4,  -14.2,  -13.8,  -13.3,  -13.0,  -13.1,  -13.3,  -13.3,  -12.9,  -12.4,  -12.4,  -12.7,  -13.0,  -13.3,  -13.5,  -13.5,  -13.5,  -13.8,  -14.0,  -14.3,  -14.1,  -14.3,  -14.1,  -14.0,  -13.6,  -13.4,  -12.9,  -12.7,  -12.7,  -12.5,  -12.6,  -12.8,  -13.0,  -13.1,  -13.1,  -12.6,  -12.3,  -11.9,  -11.8,  -11.6,  -11.5,  -11.5,  -11.3,  -11.2,  -11.1,  -11.1,  -10.9,  -10.8
2011/03/14 03:30,   -1.0,   -2.5,   -3.6,   -4.7,   -5.4,   -5.9,   -6.9,   -7.3,   -7.7,   -7.4,   -7.1,   -6.8,   -6.8,   -7.1,   -7.7,   -7.4,   -8.0,   -8.1,   -8.0,   -7.9,   -8.0,   -7.9,   -8.2,   -8.2,   -8.6,   -8.2,    3.3,    3.2,    3.1,    3.6,  999.0,  999.0,  999.0,   25.7,   26.5,   26.5,   26.5,   26.4,   26.7,   26.7,  999.0,  999.0,  999.0,  999.0,  999.0,  999.0,  -12.6,  -13.7,  -13.7,  -13.5,  -13.4,  -12.8,  -12.3,  -12.3,  -12.0,  -11.7,  -11.6,  -11.8,  -12.1,  -11.7,  -11.2,  -11.1,  -11.2,  -11.3,  -11.3,  -11.8,  -11.9,  -12.0,  -12.4,  -12.5,  -12.6,  -12.8,  -13.0,  -13.2,  -13.3,  -13.2,  -12.7,  -12.4,  -12.5,  -12.7,  -12.7,  -12.6,  -12.5,  -12.5,  -12.5,  -12.4,  -12.2,  -12.2,  -11.9,  -11.6,  -11.4,  -11.2,  -11.1,  -11.0,  -11.0,  -11.0,  -10.7,  -10.5
2011/03/14 03:40,   -0.6,   -2.0,   -3.5,   -4.0,   -5.5,   -5.7,   -6.1,   -6.3,   -6.0,   -5.6,   -5.4,   -5.9,   -6.3,   -6.6,   -6.9,   -7.0,   -7.1,   -8.0,   -7.9,   -7.6,   -7.6,   -8.1,   -7.8,  999.0,  999.0,  999.0,   10.2,   18.2,   17.9,   18.5,    9.9,   18.2,   18.0,   18.1,   26.8,   26.9,   27.0,   26.9,   27.6,   27.3,   26.1,  999.0,  999.0,  999.0,  999.0,  999.0,  999.0,  -11.6,  -11.3,  -11.3,  -11.6,  -11.4,  -11.2,  -11.1,  -11.1,  -10.9,  -11.0,  -11.2,  -11.4,  -11.5,  -11.4,  -11.5,  -11.4,  -11.3,  -11.2,  -11.0,  -10.5,  -10.1,  -10.0,  -10.4,  -10.9,  -11.2,  -11.5,  -12.0,  -12.2,  -12.1,  -11.9,  -11.5,  -11.4,  -11.7,  -11.9,  -12.0,  -12.1,  -11.9,  -11.8,  -11.6,  -11.2,  -11.0,  -11.0,  -10.6,  -10.6,  -10.4,  -10.1,   -9.8,  -10.0,  -10.2,  -10.5,  -10.6
2011/03/14 03:50,   -0.2,   -2.1,   -3.2,   -4.3,   -5.0,   -5.2,   -5.2,   -5.6,   -5.3,   -4.3,   -4.4,   -5.5,   -6.3,   -6.3,   -6.6,   -6.5,   -7.1,   -7.8,   -8.1,   -7.9,   -7.7,   -8.1,   -7.9,   -7.8,   -7.5,    6.2,    6.1,    6.4,    1.5,    2.1,    0.7,   -6.2,  999.0,   17.0,   29.0,   28.7,   29.1,   29.6,   29.5,   28.9,   28.8,  999.0,  999.0,  999.0,  999.0,  999.0,  999.0,  -11.3,  -10.7,  -10.9,  -11.2,  -10.9,  -10.4,  -10.6,  -10.3,  -10.3,  -10.3,  -10.1,  -10.2,  -10.2,   -9.9,   -9.9,   -9.9,  -10.1,  -10.2,  -10.2,  -10.2,   -9.9,   -9.8,  -10.0,  -10.3,  -10.3,  -10.2,  -10.3,  -10.7,  -11.0,  -10.7,  -10.6,  -10.6,  -10.9,  -11.4,  -11.6,  -11.8,  -11.6,  -11.1,  -10.7,  -10.7,  -10.6,  -10.5,  -10.5,  -10.5,  -10.6,  -10.6,  -10.4,  -10.0,  -10.1,  -10.3,  -10.6
2011/03/14 04:00,   -0.5,   -2.6,   -3.1,   -3.6,   -4.1,   -4.4,   -5.1,   -5.0,   -4.5,   -4.1,   -4.6,   -5.4,   -5.6,   -6.1,   -6.5,   -6.5,   -7.2,   -7.5,  999.0,   -7.2,  999.0,  999.0,  999.0,  999.0,  999.0,   26.8,   26.8,   27.4,   27.7,  999.0,   28.6,   28.6,   28.4,   28.0,   28.2,   28.0,   28.3,   28.4,   28.2,   27.9,  999.0,  999.0,  999.0,  999.0,  999.0,  999.0,  999.0,  -10.3,  -10.4,  -10.7,  -10.5,  -10.7,  -10.4,  -10.0,  -10.3,  -10.5,  -10.9,  -11.0,  -10.9,  -10.7,  -10.4,  -10.1,   -9.9,   -9.8,   -9.7,   -9.4,   -9.2,   -9.0,   -9.1,   -9.3,   -9.2,   -9.3,   -9.6,   -9.7,   -9.9,  -10.2,  -10.2,  -10.5,  -10.7,  -10.6,  -10.8,  -11.2,  -11.3,  -11.4,  -11.3,  -11.0,  -10.9,  -10.6,  -10.1,   -9.8,   -9.7,   -9.9,  -10.0,  -10.0,  -10.0,  -10.2,  -10.3,  -10.2
2011/03/14 04:10,   -0.7,   -2.1,   -3.0,   -3.4,   -3.7,   -4.2,   -4.5,   -4.1,   -4.0,   -4.3,   -4.5,   -5.4,   -5.5,   -5.6,   -6.0,   -6.5,   -7.1,   -7.4,   -7.6,   -7.4,   -7.2,   -6.8,   -7.1,   -7.3,   -7.8,    9.5,   12.4,    9.2,   18.2,   13.8,   19.6,   28.0,   27.4,   26.7,   26.3,   26.1,   26.1,   26.4,   26.5,   27.1,   27.0,   27.0,  999.0,  999.0,  999.0,  999.0,  999.0,   -9.8,   -9.8,  -10.2,  -10.6,  -10.6,  -10.6,  -10.1,   -9.9,   -9.5,   -9.4,   -9.6,  -10.3,  -10.6,  -10.7,  -10.6,   -9.7,   -9.2,   -9.1,   -9.2,   -9.1,   -9.0,   -9.2,   -9.4,   -9.2,   -9.2,   -9.7,  -10.1,  -10.1,  -10.2,  -10.4,  -10.5,  -10.3,  -10.3,  -10.3,  -10.7,  -11.0,  -11.1,  -11.2,  -11.4,  -11.1,  -10.5,   -9.8,   -9.1,   -8.9,   -9.2,   -9.5,   -9.7,   -9.7,   -9.7,   -9.9,  -10.0
2011/03/14 04:20,   -0.6,   -2.5,   -2.9,   -3.2,   -3.8,   -4.2,   -4.2,   -3.9,   -3.8,   -4.4,   -5.1,   -5.8,   -5.7,   -5.8,   -6.2,   -7.0,   -7.4,   -8.1,   -8.0,   -7.9,   -7.7,   -6.6,   -6.5,   -7.1,   -7.3,   -7.5,   -7.7,   -8.1,   -8.1,   -7.6,   -7.4,   -7.7,   -7.5,   -7.8,   -7.4,   -7.4,   -6.8,   -7.5,   -7.4,   -7.5,   -6.7,   -7.0,   -7.8,  999.0,  999.0,  999.0,  999.0,  -10.0,   -9.7,  -10.0,  -10.3,  -10.7,  -11.0,  -10.5,   -9.8,   -9.9,   -9.8,   -9.5,   -9.2,   -9.3,  -10.1,  -10.7,  -10.0,   -9.4,   -9.2,   -9.6,   -9.6,   -9.8,   -9.8,   -9.4,   -9.5,  -10.2,  -10.9,  -11.3,  -10.9,  -10.4,  -10.3,  -10.5,  -10.3,   -9.8,  -10.0,  -10.3,  -10.7,  -10.9,  -11.4,  -11.4,  -11.1,  -11.1,  -11.0,  -10.2,   -9.5,   -9.2,   -9.4,   -9.6,   -9.7,   -9.8,   -9.9,   -9.7
2011/03/14 04:30,   -0.2,   -1.9,   -2.7,   -3.5,   -3.8,   -3.9,   -3.5,   -3.4,   -3.6,   -4.3,   -5.0,   -5.4,   -5.2,   -5.2,   -6.0,   -6.3,   -7.0,   -7.6,   -7.5,   -7.6,   -7.2,   -5.9,   -5.4,   -5.7,   -6.4,   -6.3,   -6.8,   -7.3,   -7.1,   -7.3,   -7.6,   -8.0,   -7.9,   -8.4,   -7.7,   -6.7,   -6.9,   -6.9,   -7.1,   -6.9,   -7.1,   -7.6,   -7.6,   -8.8,   -7.8,  999.0,  999.0,  -10.1,   -9.7,   -9.6,  -10.0,  -10.2,  -10.2,  -10.0,  -10.3,  -10.6,  -10.5,  -10.0,   -9.7,   -9.2,   -9.0,   -9.6,  -10.3,   -9.9,   -9.5,   -9.7,   -9.8,   -9.6,   -9.4,   -9.1,   -9.5,  -10.4,  -11.7,  -13.0,  -12.3,  -11.2,  -11.0,  -10.7,  -10.3,  -10.3,  -10.5,  -10.6,  -10.8,  -10.8,  -10.8,  -11.0,  -11.2,  -11.0,  -11.3,  -11.3,  -11.1,  -10.7,  -10.0,   -9.9,   -9.8,   -9.7,  -10.1,  -10.0
2011/03/14 04:40,    0.3,   -1.9,   -3.2,   -4.0,   -4.6,   -4.9,   -4.8,   -4.1,   -4.2,   -4.8,   -5.4,   -6.2,   -5.8,   -5.4,   -5.6,   -5.6,   -6.8,   -6.8,   -7.1,   -7.2,   -7.1,   -7.0,   -5.8,   -5.1,   -6.4,   -6.4,   -6.7,   -7.6,   -8.2,   -9.1,   -8.9,   -8.4,   -8.4,   -8.6,   -9.1,   -8.9,   -8.3,   -8.3,   -7.7,   -8.0,   -8.0,   -8.4,   -8.8,   -8.4,   -7.9,  999.0,  999.0,   -9.3,   -9.0,   -9.2,   -9.2,   -9.3,   -9.2,   -9.4,  -10.1,  -10.2,  -10.0,   -9.7,   -9.1,   -8.9,   -8.9,   -9.4,  -10.0,  -10.1,   -9.6,   -9.5,   -9.7,   -9.7,   -9.9,   -9.8,  -10.0,  -10.9,  -11.7,  -12.3,  -12.5,  -12.4,  -11.8,  -11.4,  -11.2,  -11.1,  -11.1,  -11.2,  -11.1,  -11.0,  -10.5,  -10.4,  -10.2,  -10.1,  -10.7,  -11.3,  -11.5,  -11.0,  -10.4,  -10.2,  -10.0,  -10.2,  -10.8,  -10.8
2011/03/14 04:50,   -0.2,   -2.5,   -3.0,   -3.5,   -3.9,   -4.8,   -5.8,   -5.2,   -5.2,   -5.5,   -5.9,   -6.5,   -6.6,   -6.3,   -6.4,   -6.7,   -7.2,   -7.5,   -7.5,   -7.5,   -7.9,    1.3,    2.3,    7.6,    4.4,    1.9,    1.6,   27.9,   26.8,   27.4,   26.7,   26.4,   27.2,   26.9,   25.7,   25.0,   24.1,   23.9,   24.3,   23.9,   23.8,  999.0,  999.0,  999.0,  999.0,   -9.2,  999.0,   -9.3,   -8.9,   -9.1,   -8.9,   -8.8,   -8.3,   -8.5,   -9.1,   -9.0,   -8.9,   -8.6,   -8.6,   -8.4,   -8.5,   -9.0,  -10.0,  -10.9,  -10.8,  -10.7,  -11.1,  -11.5,  -11.8,  -12.0,  -12.0,  -12.3,  -12.4,  -12.3,  -12.3,  -12.4,  -12.4,  -12.0,  -11.9,  -12.0,  -12.8,  -13.1,  -13.3,  -13.4,  -13.3,  -13.1,  -13.4,  -13.5,  -12.8,  -12.9,  -12.6,  -12.1,  -12.1,  -11.6,  -11.9,  -11.8,  -11.4,  -11.5
2011/03/14 05:00,    0.2,   -1.8,   -2.6,   -2.9,   -3.1,   -4.1,   -2.0,   -2.0,   -4.7,   -1.4,   -1.7,    1.3,    1.5,    0.5,   -5.2,    1.7,   -5.9,   -6.0,   -5.8,   -6.4,   -6.6,    0.7,    1.2,   -5.7,   -6.2,    2.8,    6.0,    5.3,  999.0,  999.0,   27.6,   27.8,   28.0,   27.5,   27.5,   26.8,   26.3,   26.2,   26.8,   26.6,  999.0,  999.0,  999.0,  999.0,  999.0,   -8.6,   -8.8,   -8.3,   -8.3,   -8.3,   -8.0,   -7.5,   -7.1,   -7.0,   -7.4,   -7.5,   -7.3,   -7.2,   -7.0,   -7.2,   -8.0,   -8.4,   -9.5,  -10.5,  -11.2,  -11.6,  -11.8,  -11.8,  -11.9,  -11.9,  -12.1,  -12.3,  -12.4,  -12.4,  -12.3,  -12.2,  -11.9,  -11.7,  -11.8,  -11.9,  -12.5,  -12.8,  -13.1,  -13.5,  -14.0,  -14.2,  -14.1,  -14.0,  -14.2,  -14.0,  -14.7,  -14.7,  -14.6,  -14.4,  -14.6,  -14.4,  -14.2,  -14.1
2011/03/14 05:10,    1.3,   -0.5,   -1.6,   -2.2,   -2.8,   -3.5,   -4.6,   -4.6,   -4.6,   -5.0,   -5.7,   -5.9,   -5.4,   -5.5,   -5.7,   -5.7,   -6.1,   -5.7,   -6.0,   -6.4,   -6.4,   -6.5,   -6.6,   -6.7,   -6.4,   -6.1,   -6.2,   -6.5,  999.0,  999.0,  999.0,  999.0,  999.0,   27.2,   26.2,   26.4,   26.3,   26.4,   26.1,   25.1,  999.0,  999.0,  999.0,  999.0,  999.0,  999.0,   -7.9,   -8.0,   -7.9,   -7.9,   -7.8,   -7.3,   -7.1,   -7.3,   -7.6,   -8.1,   -8.7,   -8.9,   -9.6,   -9.2,   -9.5,  -10.2,  -10.5,  -10.8,  -10.9,  -11.0,  -11.3,  -11.5,  -11.8,  -12.3,  -12.8,  -13.3,  -13.3,  -13.3,  -12.8,  -12.4,  -11.8,  -11.8,  -11.9,  -11.9,  -12.0,  -12.2,  -12.2,  -11.9,  -11.6,  -11.4,  -11.4,  -11.4,  -11.2,  -11.2,  -11.6,  -11.6,  -12.3,  -12.5,  -12.7,  -12.9,  -13.2,  -13.3
2011/03/14 05:20,    1.6,    0.6,   -1.8,   -2.1,   -3.1,   -3.4,   -3.4,   -3.4,   -4.4,   -4.6,   -4.8,   -4.9,   -5.1,   -5.7,   -5.5,   -6.2,   -5.9,   -5.6,   -5.9,   -6.4,   -6.3,   10.7,   11.3,   11.7,    5.5,    6.1,   11.7,  999.0,   29.9,   30.0,   29.5,   28.8,   27.8,   27.3,   27.1,   27.2,   27.2,   27.4,   27.2,   28.9,  999.0,  999.0,  999.0,  999.0,   -8.5,  999.0,   -8.1,   -8.2,   -8.7,   -9.0,   -9.4,   -9.3,   -9.3,   -9.5,   -9.6,   -9.8,   -9.9,  -10.2,  -10.5,  -10.8,  -11.1,  -11.6,  -11.9,  -12.2,  -12.2,  -12.4,  -12.4,  -12.0,  -12.0,  -11.8,  -11.7,  -11.7,  -11.8,  -12.0,  -11.7,  -11.6,  -11.7,  -11.8,  -11.9,  -12.0,  -12.0,  -12.1,  -12.2,  -12.5,  -12.6,  -13.1,  -13.4,  -13.7,  -14.1,  -14.2,  -14.5,  -14.4,  -14.3,  -13.9,  -13.7,  -13.7,  -13.6,  -13.9
2011/03/14 05:30,    1.9,    0.4,   -1.4,   -1.7,   -2.2,   -2.7,   -3.3,   -3.5,   -3.8,  999.0,   -4.3,   22.1,   30.4,   16.4,   16.3,   16.2,   16.3,   15.9,   30.3,   30.2,   29.8,   29.6,   30.9,   30.6,   30.7,   30.4,   29.8,   14.8,    8.6,   16.3,   16.9,   21.5,   16.2,   21.7,   15.9,   21.3,   20.8,   21.0,   20.8,  999.0,  999.0,   -6.4,   -7.7,  999.0,   -8.3,   -8.1,   -8.8,   -8.1,   -8.8,   -9.1,   -9.7,   -9.9,  -10.0,  -10.2,  -10.7,  -10.7,  -10.9,  -10.7,  -11.0,  -11.2,  -11.3,  -11.0,  -11.1,  -11.1,  -11.2,  -11.6,  -11.8,  -12.1,  -12.3,  -12.2,  -12.3,  -12.3,  -12.6,  -13.1,  -13.5,  -13.8,  -14.0,  -14.4,  -14.9,  -15.0,  -15.1,  -15.3,  -15.2,  -15.3,  -15.5,  -15.4,  -15.6,  -15.7,  -15.9,  -15.9,  -16.0,  -15.7,  -15.7,  -15.7,  -15.6,  -15.6,  -15.7,  -15.7
2011/03/14 05:40,    0.3,   -1.8,   -2.5,   -2.5,   -2.9,   -3.1,   -3.1,   -3.4,   -3.2,   -3.4,   -3.2,    2.6,   -0.6,    2.3,    2.0,    1.3,    4.1,   12.1,  999.0,   -4.9,   12.4,   10.4,   10.4,   13.7,   13.6,   -2.3,  999.0,   -3.3,   -3.2,   -2.1,    7.2,   13.5,   10.0,    1.1,    1.3,    4.9,   -1.3,   -3.2,   -2.0,   -1.7,   -0.1,   -2.8,   -4.4,   -2.5,   -5.0,   -3.0,   -1.0,   -1.3,   -1.8,   -1.7,   -4.3,   -2.4,   -7.8,   -7.4,   -6.1,   -6.9,   -6.2,   -9.8,   -8.8,   -8.8,  -11.2,   -9.6,   -9.7,  -11.9,  -11.0,  -11.4,  -11.1,  -10.0,  -12.2,  -10.0,  -11.1,  -11.7,  -13.4,  -13.6,  -13.6,  -13.3,  -13.7,  -13.9,  -13.8,  -13.9,  -13.9,  -14.2,  -14.4,  -14.4,  -14.7,  -14.8,  -15.0,  -14.8,  -14.9,  -14.9,  -14.9,  -15.1,  -15.3,  -15.0,  -15.1,  -15.3,  -14.8,  -15.2
2011/03/14 05:50,   -3.1,  999.0,   -5.2,   -4.3,   12.3,   -1.1,    1.9,   15.2,   18.2,   24.8,   25.3,   28.5,   29.7,   29.4,   28.9,   23.3,   28.9,   29.6,   21.8,   25.7,   21.0,   16.5,   15.7,    9.8,   17.6,   18.6,   16.8,   17.4,   20.5,  999.0,  999.0,   16.7,    7.6,   12.2,   26.1,   15.6,   19.3,   12.3,   16.6,  999.0,   11.7,    1.8,    9.8,   -4.9,   -3.5,  999.0,  999.0,   -6.5,   -5.4,   -6.7,   -5.1,   -3.6,   -5.6,   -3.5,   -6.5,   -4.5,   -9.0,   -4.9,   -5.9,   -4.7,   -7.5,   -5.0,  999.0,   -5.0,   -5.5,   -5.6,   -4.6,  999.0,   -5.0,   -4.4,   -4.4,   -5.0,  999.0,   -4.0,   -5.0,   -6.4,   -9.7,  999.0,   -8.0,   -7.8,   -6.5,   -9.0,   -7.1,   -8.3,   -8.6,  999.0,   -7.3,   -5.0,   -5.6,   -6.7,   -6.8,   -9.5,   -9.5,  -10.3,  -12.6,  -10.9,  -10.1,  -10.5
2011/03/14 06:00,  999.0,   -4.7,  999.0,   20.2,   15.9,   18.0,   17.7,   21.7,   15.4,   12.6,   12.0,   12.8,  999.0,    8.2,   10.3,    1.8,   11.0,   -3.4,   -1.0,   -1.0,  999.0,    3.5,    0.5,    3.7,  999.0,  999.0,  999.0,  999.0,  999.0,  999.0,    0.4,  999.0,   -5.1,  999.0,  999.0,  999.0,   -8.9,  999.0,  999.0,  999.0,  999.0,  999.0,  999.0,   -6.0,  999.0,  999.0,  999.0,  999.0,  -11.6,  999.0,  999.0,  999.0,  999.0,  999.0,   -6.1,   -7.0,   -7.9,   -6.5,   -7.8,   -9.4,   -7.7,  -10.0,   -8.8,   -8.8,  -10.2,   -9.5,   -9.9,   -9.6,   -9.2,   -9.9,  -10.5,   -6.4,  999.0,   -9.1,   -9.2,   -9.8,  -10.8,   -9.5,   -6.2,   -9.8,   -9.4,   -8.9,  999.0,  999.0,   -9.6,  -11.1,  999.0,   -8.4,  999.0,   -9.9,  -10.1,  999.0,   -9.1,   -7.6,  -10.2,   -7.5,   -8.5,   -5.9
2011/03/14 06:10,   -1.5,  999.0,   -3.5,   -5.8,   -6.8,   -7.1,   -6.4,   -5.6,   -4.5,   -4.5,   -2.7,   -0.7,    0.1,   -2.5,   -0.8,   -1.6,   -3.7,   -3.3,   -4.3,   -2.8,   -2.9,   -3.8,   -4.0,   -3.4,   -2.6,   -3.8,   -3.5,   -3.0,   -4.0,   -4.3,   -4.9,   -5.3,   -6.1,   -6.7,   -5.4,   -6.6,   -6.5,   -7.2,   -8.2,   -6.2,  -10.3,   -8.0,   -4.2,   -6.6,   -5.1,   -5.3,   -5.6,   -5.0,   -6.0,   -5.9,   -6.8,   -7.4,   -7.2,   -7.7,   -9.0,   -9.4,   -8.7,  -11.3,  -10.7,  -11.0,  -11.9,  -11.3,  -10.8,  -10.2,  -10.4,  -10.2,  -10.7,  -10.0,   -9.8,   -8.7,   -9.3,   -9.3,   -9.6,   -9.1,   -9.7,   -9.6,   -9.8,   -8.9,   -9.2,   -7.3,   -7.3,   -8.0,   -8.2,   -7.4,   -7.5,   -4.5,   -7.8,   -9.0,   -8.8,   -9.4,   -9.3,   -8.3,   -9.3,   -9.4,   -8.6,   -7.4,   -8.3,   -7.7
2011/03/14 06:20,   -2.4,   -3.9,   -5.0,   -4.9,   -4.1,   -2.9,   -1.4,   -0.1,    0.6,   -0.1,   -0.9,   -1.4,   -3.5,   -4.1,   -4.6,   -4.6,   -4.2,   -4.5,   -4.1,   -3.8,   -3.9,   -4.3,   -3.9,   -3.9,   -2.6,   -2.8,   -4.6,   -1.5,   -2.5,   -3.0,   -2.8,   -2.8,   -2.3,   -0.8,   -0.7,    0.1,   -1.4,   -1.6,   -3.1,   -5.8,   -4.3,   -4.4,   -6.1,   -6.3,   -5.8,   -4.5,   -5.4,   -4.6,   -6.3,   -7.0,   -6.9,   -7.0,   -7.8,   -8.3,   -7.9,   -6.9,   -7.2,   -7.2,   -7.4,   -7.8,   -8.3,   -8.6,   -8.9,   -9.3,   -9.3,   -9.2,   -9.0,   -8.9,   -9.2,   -9.1,   -9.3,   -9.5,   -9.5,   -9.4,   -9.4,   -9.6,   -9.4,   -9.1,   -8.7,   -9.6,   -8.8,   -9.2,   -8.2,   -8.3,   -9.1,   -8.1,   -8.4,   -8.2,   -8.7,   -8.4,  -10.3,   -8.6,   -8.8,   -9.1,   -7.1,   -5.7,   -7.6,   -6.7
2011/03/14 06:30,    1.9,   -1.8,   -2.5,   -2.9,   -2.2,   -1.7,   -3.1,  999.0,   -2.9,   -3.7,   -3.4,   -3.1,   -4.3,   -4.6,   -5.9,   -5.2,   -5.8,   -6.7,   -6.8,   -5.7,   -6.6,   -6.3,   -5.9,   -5.5,   -4.0,   -4.7,   -3.5,   -6.0,  999.0,   -4.7,   -4.7,   -1.8,   -3.9,   -3.6,   -1.5,   -3.1,   -3.1,   -5.5,   -5.3,   -6.3,   -6.2,   -6.6,   -7.2,   -7.6,   -9.0,   -8.7,   -8.5,   -8.4,   -8.9,   -9.9,   -9.8,   -9.8,   -9.8,  -10.0,  -10.1,  -10.3,  -10.6,  -10.4,  -10.1,   -9.3,   -8.7,   -8.7,   -8.5,   -9.1,   -9.4,   -9.9,  -10.1,  -10.2,   -9.6,   -9.5,   -9.5,  -10.0,  -10.0,  -10.3,  -10.7,  -10.6,  -10.5,  -10.4,  -10.2,  -10.3,  -10.9,  -11.0,  -11.2,  -11.2,  -11.1,  -10.7,  -10.1,  -10.0,  -10.0,  -10.3,  -10.0,  999.0,  999.0,  999.0,   -9.2,   -9.0,  999.0,  999.0
2011/03/14 06:40,   -0.2,    0.1,   -0.5,   -1.3,   -1.8,   -1.0,   -1.6,   -2.3,   -2.8,   -2.6,   -2.6,   -3.6,   -4.6,   -5.3,   -5.6,   -5.8,   -5.9,   -5.7,   -6.4,   -5.7,   -5.5,   -6.4,   -5.7,   -5.3,   -3.4,   -3.4,   -2.2,   -1.8,   -1.7,   -2.4,   -2.5,   -3.2,   -4.5,   -4.6,   -4.9,   -5.6,   -6.2,   -6.4,   -7.2,   -7.6,   -8.7,   -7.3,   -6.7,   -7.1,   -7.4,   -7.5,   -7.9,   -8.0,   -8.0,   -8.1,   -8.4,   -8.9,   -9.3,   -9.1,   -9.1,   -9.3,   -9.2,   -8.9,   -8.5,   -8.1,   -7.9,   -7.7,   -7.9,   -8.2,   -8.6,   -9.0,   -9.0,   -8.9,   -8.9,   -9.6,   -9.7,   -9.4,   -9.4,   -9.6,   -9.7,  -10.0,  -10.5,  -10.5,  -10.7,  -10.9,  -11.1,  -11.2,  -11.3,  -11.2,  -11.3,  -11.2,  -11.1,  -11.1,  -10.8,  -10.8,  -10.8,  -11.1,  999.0,  999.0,  999.0,  -10.2,  -10.2,   -9.6
2011/03/14 06:50,    0.6,    1.3,    1.2,    1.5,    0.9,   -1.1,   -2.5,   -3.2,   -4.4,   -5.1,   -5.9,   -6.2,    2.1,    1.7,   -6.1,   -6.2,    1.6,    1.2,    1.4,    1.4,    5.8,   -6.5,   -6.9,   -6.5,    9.7,    4.5,    6.4,   13.6,   -3.1,    7.4,  999.0,   28.3,   25.8,   25.6,   23.8,   23.5,   22.0,   23.3,   21.7,  999.0,  999.0,  999.0,  999.0,  999.0,  999.0,   -9.6,   -9.7,   -9.6,  999.0,  999.0,  999.0,   -8.8,   -8.7,   -8.4,   -8.2,   -8.2,   -8.2,   -8.8,   -9.2,   -9.1,   -9.7,  -10.1,  -10.1,  -10.3,  -10.2,  -10.2,  -10.4,  -10.5,  -10.6,  -10.5,  -10.4,  -10.3,  -10.1,   -9.5,   -9.5,   -9.5,   -9.3,   -9.2,   -9.2,   -9.3,   -9.5,   -9.7,  -10.0,  -10.0,  -10.2,  -10.0,   -9.8,   -9.5,   -9.2,   -8.9,   -8.9,   -8.4,   -8.4,   -8.3,   -8.4,   -8.5,   -8.4,   -8.6
2011/03/14 07:00,   -1.1,  999.0,    0.7,    0.6,   -2.0,   -3.1,   -2.2,    5.2,   13.5,   21.4,   21.1,   18.6,   18.2,   18.2,   18.3,   18.5,   18.3,   11.2,   11.4,   11.4,   18.2,   12.5,   13.0,   19.2,   14.0,  999.0,   -1.1,   -1.5,   -1.9,   -3.3,   -2.2,   -3.0,   -3.6,  999.0,   16.6,   28.2,   28.2,   28.7,   28.0,  999.0,  999.0,  999.0,  999.0,  999.0,  999.0,  -10.7,  -10.4,  -10.3,  -10.1,  -10.4,  -10.4,  -10.0,  -10.0,  -10.5,  -10.7,  -10.0,   -9.8,   -9.8,   -9.7,   -9.3,   -9.4,   -9.4,   -9.0,   -9.0,   -9.1,   -9.4,   -9.7,  -10.0,  -10.1,  999.0,  -10.4,  -10.6,  -10.7,  -10.9,  -11.1,  -11.1,  -11.2,  -10.9,  -11.1,  -11.0,  -11.0,  -11.1,  -10.8,  -10.8,  -10.4,  -10.2,  -10.2,  -10.2,  -10.4,  -10.4,  -10.4,  -10.1,  -10.3,  -10.1,  -10.2,  -10.4,  -10.4,  -10.1
2011/03/14 07:10,   -2.4,   -3.8,   -3.4,   -3.9,   -4.1,   -4.4,   -4.9,   -2.3,   -3.0,   -2.8,   -5.3,   -2.5,    0.1,   -2.7,   -5.4,   -5.2,   -4.7,   -5.2,   -5.8,   -5.9,   -5.1,   -5.0,   -4.8,   -3.7,   -3.7,   -4.2,   -4.4,   -3.0,   -3.2,   -2.9,   -3.0,   -3.7,   -4.3,   -5.5,   -5.9,  999.0,  999.0,  999.0,   -4.7,   -5.3,   -5.2,   -6.4,   -8.1,   -6.0,   -6.6,   -6.5,   -7.4,   -8.1,   -8.2,   -7.8,   -8.3,   -8.0,   -8.4,   -8.8,   -9.2,   -9.8,  -10.4,  -10.6,  -10.8,  -11.0,  -11.1,  -11.2,  -11.2,  -11.2,  -11.2,  -11.2,  -10.9,  -11.3,  -10.9,  -10.9,  -10.7,  -10.7,  -10.8,  -10.9,  -11.3,  -11.1,  -11.2,  -10.9,  -10.7,  -10.6,  -10.3,  -10.4,  -10.6,  -10.7,  -10.7,  -10.8,  -10.7,  -10.7,  -10.5,  -10.2,  -10.3,  -10.1,  -10.1,  -10.1,   -9.2,   -9.4,   -8.3,   -9.0
2011/03/14 07:20,   24.6,    6.5,    9.5,    6.3,    7.2,   -5.1,    8.7,    8.5,    8.3,    8.2,    7.6,    6.6,    6.3,    6.4,    6.8,    6.9,    2.2,   -7.1,   -6.0,   -6.1,   -6.0,   -5.6,   -5.0,   -4.8,    2.6,    2.0,    2.2,   -5.0,    1.9,    1.0,    0.5,   -0.2,    0.4,    0.2,   -5.8,    2.2,   -4.9,   -5.5,    3.6,   -4.0,   -3.8,    2.0,    2.8,   -5.7,   -5.3,  999.0,   -8.4,   -9.3,   -9.8,   -9.8,  -10.3,   -8.5,   -9.2,   -8.8,   -9.4,   -9.3,   -9.5,  -10.7,   -9.4,  -10.0,  -10.5,  -10.4,  -10.6,  -11.3,  -11.4,  -11.7,  -11.2,  -11.5,  -11.5,  -11.5,  -11.5,  -11.3,  -11.3,  -11.5,  -11.3,  -11.3,  -11.2,  -11.0,  -10.6,  -10.5,  -10.7,  -10.7,  -10.9,  -10.8,  -10.6,  -10.4,  -10.3,  -10.3,  -10.0,   -9.8,   -9.5,   -9.2,   -8.9,   -8.5,   -8.6,   -8.5,   -8.8,   -9.2
2011/03/14 07:30,  999.0,  999.0,  999.0,  999.0,   26.8,   18.5,   20.2,   19.0,   20.3,   20.1,   20.1,   17.2,   14.6,   18.9,   19.8,   17.9,   17.9,  999.0,  999.0,   -3.8,   -4.0,  999.0,  999.0,   -3.8,   -3.4,   -3.4,   -4.5,   -4.5,   -6.1,   -2.9,   -5.0,   -6.4,   -5.6,   -6.0,   -7.1,   -5.4,   -5.2,   -6.6,   -5.4,  999.0,   -4.7,   -7.8,   -7.2,   -6.3,   -7.5,   -7.1,   -7.4,   -8.1,   -8.5,  999.0,   -7.4,   -8.0,   -8.8,   -7.1,   -8.8,   -8.9,   -9.0,  -10.9,  -11.0,  -10.5,  -10.6,  -10.9,  -10.9,  -11.2,  -11.5,  -11.2,  -11.0,  -11.1,  -11.0,  -11.2,  -10.9,  -10.9,  -11.6,  -11.8,  -11.8,  -11.6,  -11.1,  -11.1,  -11.1,  -11.2,  -11.2,  -11.3,  -11.2,  -11.2,  -11.1,  -11.3,  -11.1,  -10.9,  -10.7,  -10.7,  -10.7,  -10.8,  -10.9,  -11.0,  -10.9,  -10.4,  -10.3,  -10.5
2011/03/14 07:40,   -8.9,   -4.2,   -4.3,  -10.1,   -9.9,   -9.7,   -5.3,   -5.7,   -5.1,   -4.5,   -7.5,   -7.1,   -8.3,   -5.9,   -4.6,   -5.9,    0.4,   -4.2,   -4.7,   -5.3,    2.2,    2.4,    2.2,    2.6,   -5.2,   -5.2,   -4.7,   -4.9,   -5.1,   -5.2,   -5.0,   -5.1,   -6.1,   -6.1,   -5.8,   -6.2,   -5.9,   -5.5,   -4.4,   -4.2,   -4.2,   -5.2,   -5.6,   -9.1,  999.0,   -8.8,   -9.8,   -9.6,   -9.3,   -9.4,   -9.0,   -9.4,   -9.2,   -8.9,   -9.0,   -9.0,   -9.3,   -9.6,  -10.2,  -10.7,  -11.0,  -11.0,  -11.1,  -11.2,  -11.2,  -11.2,  -11.3,  -10.9,  -10.9,  -10.7,  -10.6,  -10.1,  -10.0,   -9.7,  -10.0,   -9.6,   -9.7,   -9.7,   -9.9,  -10.0,  -10.1,  -10.4,  -10.5,  -10.5,  -10.5,  -10.4,  -10.4,  -10.4,  -10.4,  -10.2,  -10.5,  -10.3,  -10.4,  -10.2,  -10.7,  -10.9,  -10.9,  -10.8
2011/03/14 07:50,   -9.3,  -10.5,   -6.0,   -9.7,   -8.5,   -8.0,   -8.1,   -8.1,   -7.1,   -6.4,   -6.3,   -8.2,   -8.1,   -7.8,   -8.5,   -8.2,   -8.7,   -9.1,   -8.7,    2.7,    8.7,  999.0,    2.2,   -6.9,   -7.3,   -6.9,   -6.0,  999.0,    9.6,    9.9,   13.8,  999.0,  999.0,    8.1,  999.0,  999.0,    8.1,    9.3,    9.3,   11.2,    9.9,    9.2,  999.0,   -6.7,   -6.7,   -7.3,   -7.9,   -8.0,   -8.3,   -9.0,   -9.0,   -8.8,   -8.7,   -9.3,   -9.4,   -9.3,  -10.0,  -10.5,  -11.1,  -11.4,  -11.9,  -12.2,  -12.1,  -12.4,  -12.4,  -12.1,  -11.9,  -11.9,  -11.8,  -12.0,  -12.0,  -11.9,  -11.7,  -11.6,  -11.9,  -11.7,  -11.5,  -11.4,  -11.1,  -11.1,  -11.3,  -11.5,  -11.7,  -12.0,  -11.1,  -12.0,  -12.4,  -12.4,  -12.3,  -12.2,  -11.8,  -11.9,  -11.6,  -11.5,  -11.3,  -11.1,  -11.2,  -11.0
2011/03/14 08:00,   27.0,   25.4,   25.5,   26.5,   25.9,   26.0,   26.0,   26.7,   26.9,   27.6,   27.7,   27.5,   26.7,   26.3,   26.0,   25.7,   26.6,   26.1,   25.2,   26.1,   25.9,   26.7,   27.4,   27.3,   26.5,   27.7,   27.7,   27.3,   26.6,   26.7,   27.2,   26.7,   27.2,   26.4,   25.8,   26.4,   26.4,   27.2,   26.1,  999.0,  999.0,  999.0,   -6.8,  999.0,   -8.4,   -9.4,   -9.6,   -9.8,  -10.0,  -10.2,  -10.1,  -10.3,  -10.3,  -10.4,  -10.5,  -10.5,  -10.3,  -10.3,  -10.2,  -10.2,  -10.2,  -10.2,  -10.3,  -10.4,  -10.4,  -10.2,  -10.2,  -10.2,  -10.2,  -10.3,  -10.2,  -10.2,  -10.3,  -10.4,  -10.4,  -10.3,  -10.3,  -10.2,  -10.2,  -10.3,  -10.5,  -10.8,  -11.2,  -11.6,  -11.8,  -11.4,  -11.6,  -11.9,  -12.2,  -12.7,  -13.0,  -13.3,  -13.8,  -14.1,  -14.2,  -14.0,  -13.7,  -13.6
2011/03/14 08:10,   28.0,   26.1,   25.8,   26.0,   26.0,   26.1,   25.9,   26.6,   26.7,   27.3,   27.3,   26.7,   26.1,   25.8,   25.8,   26.0,   25.3,   24.5,   25.1,   26.4,   27.1,   27.0,   26.6,   26.7,   26.5,   26.5,   26.6,   26.8,   25.9,   25.5,   26.6,   26.8,   26.5,   27.3,   26.8,   27.6,   27.6,   27.1,   27.1,  999.0,  999.0,   -6.9,   -7.5,   -7.5,   -7.9,   -8.6,   -9.4,   -9.8,  -10.0,   -9.9,  -10.1,  -10.3,  -10.4,  -10.3,  -10.3,  -10.2,  -10.3,  -10.3,  -10.6,  -10.7,  -10.7,  -10.6,  -10.5,  -10.4,  -10.2,   -9.8,   -9.9,   -9.8,   -9.9,   -9.9,  -10.0,  -10.1,  -10.4,  -10.6,  -10.8,  -10.9,  -11.0,  -10.8,  -10.7,  -10.5,  -10.3,  -10.0,   -9.8,   -9.9,  -10.1,  -10.6,  -11.0,  -11.3,  -11.5,  -11.8,  -12.1,  -12.2,  -12.4,  -12.6,  -12.9,  -13.0,  -13.2,  -13.3
2011/03/14 08:20,   28.5,   26.7,   26.5,   26.0,   25.9,   26.3,   25.9,   26.2,   26.1,   26.3,   26.3,   26.7,   26.6,   26.6,   26.6,   26.3,   26.1,   25.9,   26.0,   26.1,   26.5,   27.5,   27.8,   27.2,   26.8,   26.5,   26.5,   26.8,   26.6,   26.7,   26.9,   27.5,   27.1,   27.6,   27.4,   27.0,   27.0,   26.3,   26.0,  999.0,  999.0,  999.0,   -9.9,  -10.9,  -11.7,  -11.7,  -11.7,  -11.7,  -11.5,  -11.5,  -11.6,  -11.8,  -12.1,  -12.3,  -12.3,  -12.5,  -12.5,  -12.6,  -12.7,  -12.9,  -13.1,  -13.3,  -13.4,  -13.3,  -12.9,  -12.5,  -12.3,  -12.1,  -11.6,  -11.0,  -10.2,   -9.5,   -8.9,   -8.4,   -8.2,   -7.8,   -7.7,   -7.6,   -7.8,   -7.7,   -7.7,   -7.8,   -7.9,   -8.1,   -8.3,   -8.4,   -8.7,   -9.0,   -9.0,   -9.1,   -9.2,   -9.2,   -9.0,   -9.3,   -9.4,   -9.6,   -9.6,   -9.5
2011/03/14 08:30,  999.0,   27.6,   27.4,   27.3,   27.2,   27.2,   26.5,   26.5,   26.2,   26.5,   26.6,   27.2,   27.3,   26.9,   26.8,   26.6,   26.8,   27.0,   26.6,   26.1,   25.8,   26.0,   25.5,   25.9,   26.2,   26.7,   27.2,   27.7,   27.6,   27.6,   27.9,   27.8,   27.3,   28.2,   28.1,   28.1,   27.9,   27.5,   27.1,  999.0,  999.0,  999.0,   -9.9,   -9.9,   -9.4,   -9.4,  -10.2,  -10.5,  -10.2,  -10.0,  -10.2,  -10.4,  -10.4,  -10.6,  -10.5,  -10.6,  -10.5,  -10.6,  -10.8,  -11.0,  -11.1,  -11.1,  -10.8,  -10.6,  -10.3,   -9.7,   -9.2,   -8.6,   -8.8,   -8.5,   -8.2,   -7.6,   -7.5,   -7.1,   -7.1,   -7.0,   -7.2,   -7.2,   -7.4,   -7.6,   -7.8,   -7.6,   -7.6,   -7.5,   -7.3,   -7.4,   -7.6,   -7.7,   -7.8,   -7.9,   -8.0,   -8.1,   -8.3,   -8.4,   -8.3,   -8.4,   -8.5,   -8.8
2011/03/14 08:40,  999.0,   27.4,   27.7,   28.2,   27.8,   27.6,   27.4,   27.5,   26.9,   26.9,   26.8,   26.9,   27.5,   27.4,   27.1,   26.9,   26.8,   26.8,   26.5,   26.0,   25.5,   25.4,   25.5,   26.4,   26.8,   26.6,   26.1,   25.4,   26.1,   25.3,   25.4,   25.3,   25.5,   25.4,   25.0,   24.8,   25.8,   26.6,  999.0,  999.0,  999.0,  999.0,  999.0,   -9.5,   -9.5,   -9.6,   -9.8,   -9.7,   -9.7,   -9.5,   -9.3,   -8.6,   -8.2,   -7.9,   -7.9,   -8.1,   -8.2,   -8.0,   -7.7,   -7.8,   -7.8,   -7.7,   -7.6,   -7.6,   -7.3,   -6.9,   -6.5,   -6.3,   -6.7,   -6.4,   -6.0,   -5.5,   -5.7,   -5.9,   -5.6,   -5.6,   -5.3,   -5.2,   -5.5,   -5.5,   -5.9,   -6.3,   -6.6,   -7.0,   -7.4,   -7.9,   -8.2,   -8.5,   -8.6,   -8.8,   -8.7,   -8.9,   -8.8,   -8.4,   -8.2,   -7.9,   -7.5,   -7.4
2011/03/14 08:50,  999.0,   27.7,   28.6,   28.1,   27.7,   28.0,   27.9,   27.0,   26.8,   27.2,   27.3,   27.2,   27.2,   27.4,   27.3,   26.7,   26.4,   26.0,   26.1,   25.9,   25.9,   26.0,   26.4,   26.3,   26.2,   25.7,   25.1,   24.8,   24.9,   25.0,   25.3,   25.3,   24.8,   24.2,   23.5,   23.9,   24.8,   25.2,   25.8,  999.0,  999.0,  999.0,  -11.1,  -10.3,   -9.1,   -8.7,   -8.5,   -8.8,   -9.1,   -9.3,   -9.4,   -9.3,   -9.0,   -8.6,   -8.3,   -8.0,   -7.7,   -7.5,   -7.4,   -7.5,   -7.7,   -7.8,   -7.9,   -8.0,   -7.8,   -7.7,   -7.6,   -7.7,   -7.6,   -7.5,   -7.5,   -7.5,   -7.4,   -7.2,   -6.9,   -6.8,   -6.5,   -6.4,   -6.4,   -6.3,   -6.0,   -5.9,   -5.8,   -5.6,   -5.7,   -5.7,   -5.9,   -6.1,   -6.3,   -6.3,   -6.7,   -7.1,   -7.2,   -7.0,   -7.0,   -6.9,   -7.1,   -7.2
2011/03/14 09:00,   28.8,   28.2,   28.4,   28.6,   27.8,   27.6,   27.1,   27.1,   26.9,   25.8,   26.2,   26.5,   26.3,   26.6,   26.7,   26.9,   26.7,   26.7,   26.4,   25.5,   25.2,   25.5,   26.5,   27.7,   27.7,   27.2,   26.5,   26.2,   26.6,   26.4,   26.7,   26.5,   25.8,   25.3,   25.5,   25.5,   26.1,  999.0,  999.0,  999.0,  999.0,  999.0,   -8.9,   -8.6,   -8.5,   -8.6,   -8.2,   -8.1,   -8.0,   -7.5,   -7.5,   -7.7,   -7.8,   -8.1,   -8.5,   -8.6,   -8.3,   -7.9,   -7.7,   -7.7,   -7.8,   -7.9,   -8.1,   -8.1,   -8.1,   -8.1,   -8.2,   -8.1,   -8.0,   -7.7,   -7.3,   -6.7,   -6.5,   -6.3,   -6.2,   -6.1,   -6.0,   -6.0,   -5.9,   -5.7,   -5.6,   -5.6,   -5.3,   -5.0,   -4.8,   -4.6,   -4.4,   -4.4,   -4.5,   -4.7,   -4.9,   -5.0,   -5.1,   -5.4,   -6.0,   -6.5,   -7.3,   -7.7
2011/03/14 09:10,   30.2,   29.6,   29.7,   29.3,   27.9,   27.9,   27.8,   26.9,   26.1,   25.6,   25.4,   25.7,   25.9,   26.4,   26.7,   26.5,   26.0,   26.3,   26.2,   26.1,   25.6,   25.1,   24.7,   25.4,   26.0,   26.3,   26.1,   26.2,   25.9,   26.2,   26.0,   26.2,   25.6,   25.7,   26.5,   26.2,  999.0,  999.0,  999.0,  999.0,  999.0,  999.0,   -8.7,   -8.3,   -8.4,   -8.2,   -8.0,   -8.1,   -8.9,   -9.0,   -8.4,   -8.0,   -7.8,   -7.6,   -7.6,   -7.5,   -7.3,   -7.2,   -7.3,   -7.4,   -7.5,   -7.8,   -8.2,   -8.8,   -9.5,   -9.7,   -9.8,   -9.5,   -9.2,   -8.9,   -8.6,   -8.2,   -7.9,   -7.6,   -7.5,   -7.2,   -7.1,   -6.9,   -6.8,   -7.0,   -6.9,   -6.6,   -6.3,   -6.2,   -6.3,   -6.0,   -5.8,   -5.3,   -5.1,   -4.7,   -4.6,   -4.2,   -4.1,   -4.0,   -4.2,   -4.6,   -5.0,   -5.4
2011/03/14 09:20,   16.4,   18.0,   29.3,   29.3,   29.0,   28.8,   29.2,   28.8,   27.8,   27.6,   27.4,   27.3,   27.1,   27.1,   27.0,   26.8,   26.6,   26.9,   27.1,   27.3,   26.7,   26.1,   25.8,   26.6,   26.7,   26.8,   26.4,   26.7,   27.7,   27.6,   26.9,   25.9,   25.6,   25.3,   26.1,   26.6,   26.8,   27.0,  999.0,  999.0,  999.0,  999.0,  999.0,   -9.1,   -9.5,   -9.6,   -9.5,   -9.4,   -9.0,   -8.7,   -9.0,   -9.6,   -9.8,   -9.6,   -9.2,   -8.2,   -7.4,   -6.9,   -6.5,   -6.3,   -6.2,   -6.6,   -7.1,   -7.6,   -8.0,   -8.5,   -8.8,   -9.2,   -9.5,   -9.7,   -9.8,   -9.7,   -9.4,   -9.1,   -8.8,   -8.6,   -8.5,   -8.2,   -8.0,   -7.7,   -7.5,   -7.1,   -6.9,   -6.8,   -7.0,   -7.2,   -7.4,   -7.4,   -7.5,   -7.4,   -7.3,   -7.0,   -6.9,   -6.6,   -6.2,   -6.0,   -6.1,   -6.1
2011/03/14 09:30,   -5.3,   -4.4,  999.0,  999.0,  999.0,  999.0,  999.0,  999.0,   14.3,   17.0,   27.4,  999.0,   27.1,   26.3,   25.7,   26.1,   25.8,   25.5,   25.2,   25.6,   26.0,   26.4,   25.9,   25.9,   25.6,   25.0,   26.0,   26.6,   26.8,   26.8,   26.5,   25.7,   25.4,   25.4,   25.6,   25.6,   26.0,   25.6,  999.0,  999.0,  999.0,  999.0,  999.0,  999.0,  -10.5,  -10.3,  -10.3,  -10.4,  -11.1,  -11.8,  -10.7,  -10.2,  -10.3,  -10.2,  -10.3,  -10.3,  -10.1,   -9.9,   -9.5,   -9.1,   -8.7,   -8.3,   -8.0,   -7.9,   -7.7,   -7.5,   -7.6,   -8.1,   -8.3,   -8.8,   -9.0,   -9.1,   -9.2,   -9.2,   -9.4,   -9.3,   -9.0,   -8.9,   -8.9,   -8.8,   -8.6,   -8.4,   -8.3,   -7.8,   -7.2,   -7.0,   -6.7,   -6.5,   -6.5,   -6.7,   -6.7,   -6.9,   -6.4,   -6.4,   -6.3,   -6.3,   -6.1,   -6.0
2011/03/14 09:40,   -4.1,    7.1,   -4.2,   -4.5,   -4.6,    6.3,    6.0,    5.9,   14.7,   14.1,   10.8,   15.6,   15.9,   10.3,   15.8,   15.6,   10.4,   15.8,   15.7,   15.7,   15.6,   15.7,   27.0,  999.0,   26.6,   26.8,   27.4,   28.1,   27.8,   27.5,   27.8,   27.7,   18.9,   27.3,   27.6,   27.8,   27.6,   26.7,   28.0,  999.0,  999.0,  999.0,  999.0,  999.0,  -10.0,  -10.0,  -10.0,  -10.5,  -11.3,  -12.1,  -12.4,  -12.0,  -11.6,  -11.5,  -11.2,  -11.0,  -11.1,  -11.4,  -11.3,  -11.0,  -11.0,  -10.6,   -9.9,   -9.6,   -9.0,   -8.1,   -7.5,   -6.9,   -6.5,   -6.7,   -7.4,   -7.8,   -8.4,   -8.8,   -9.1,   -9.3,   -9.2,   -9.5,  -10.1,  -10.7,  -11.1,  -10.6,   -9.7,   -9.3,   -9.0,   -8.8,   -8.4,   -8.0,   -7.7,   -7.4,   -7.3,   -7.3,   -7.4,   -7.5,   -7.6,   -7.7,   -7.8,   -7.6
2011/03/14 09:50,   -4.3,   -4.5,   -4.7,   -4.7,   -5.4,   -6.0,   -5.3,   -5.6,   -6.6,   -7.2,   -7.3,   -7.2,   -6.9,   -6.7,   -6.8,   -7.4,   -7.7,   -7.6,   -7.1,   -7.3,   -8.3,   -8.7,   -9.0,   -9.0,   -8.9,   -9.0,   -9.4,   -8.5,   -7.8,   -6.8,   -7.4,   -7.4,   -7.5,   -7.6,   -7.2,   -7.5,   -8.9,   -9.8,  -10.1,   -9.7,   -9.3,   -9.6,   -8.8,  999.0,  999.0,  -10.6,  -11.2,  -12.0,  -12.3,  -12.5,  -12.4,  -12.6,  -12.7,  -12.7,  -12.5,  -12.2,  -11.6,  -11.1,  -11.3,  -11.7,  -11.5,  -11.1,  -10.7,  -10.5,  -10.2,   -9.6,   -8.8,   -7.8,   -7.0,   -6.5,   -6.5,   -6.7,   -6.9,   -7.5,   -8.0,   -8.3,   -8.6,   -9.1,  -10.2,  -11.2,  -12.0,  -12.3,  -12.2,  -11.8,  -11.3,  -10.8,  -10.2,   -9.7,   -9.8,   -9.1,   -8.5,   -8.1,   -7.6,   -7.5,   -7.4,   -7.4,   -7.4,   -7.3
2011/03/14 10:00,   -5.0,   -5.2,   -5.3,   -6.3,   -6.4,   -6.0,   -5.5,   -5.8,   -6.6,   -7.0,   -6.5,   -6.3,   -6.0,   -6.0,   -6.0,   -6.9,   -6.8,   -6.8,   -7.4,   -7.8,   -8.5,   -9.2,   -9.7,   -9.9,   -9.7,  -10.1,   -9.4,   -9.0,   -8.8,   -8.3,   -7.8,   -8.8,   -9.0,   -8.3,   -8.7,  -10.1,  -10.7,  -10.8,  -10.5,  -10.3,   -9.6,   -7.6,   -7.3,  999.0,  999.0,   -8.8,   -8.3,   -8.3,   -8.5,   -8.9,   -9.7,  -10.7,  -11.2,  -11.4,  -11.5,  -11.5,  -11.8,  -11.7,  -11.4,  -11.0,  -10.9,  -10.6,  -10.6,  -10.4,  -10.2,  -10.0,   -9.4,   -8.8,   -7.8,   -7.0,   -6.7,   -6.6,   -6.4,   -6.5,   -6.9,   -7.3,   -7.7,   -8.1,   -8.6,   -9.3,  -10.4,  -11.3,  -11.7,  -11.5,  -11.4,  -11.2,  -11.2,  -11.2,  -10.8,  -10.3,   -9.7,   -9.1,   -8.5,   -8.1,   -7.8,   -7.7,   -7.6,   -7.5
2011/03/14 10:10,   -4.8,   -5.9,   -6.4,   -6.6,   -6.1,   -6.0,   -5.8,   -6.3,   -7.1,   -7.4,   -7.0,   -6.2,   -5.3,   -5.3,   -5.6,   -6.4,   -7.0,   -6.7,   -7.1,   -8.1,   -8.1,   -8.4,   -8.8,   -8.3,   -8.1,   -8.0,   -7.2,   -7.3,   -6.1,   -6.3,   -5.9,   -5.6,   -5.5,   -6.4,   -7.1,   -7.5,   -7.6,   -7.3,   -7.1,   -7.2,   -8.0,   -7.6,   -7.8,   -7.9,  999.0,   -7.7,   -8.4,   -8.6,   -8.6,   -8.7,   -8.7,   -8.9,   -9.0,   -9.0,  -10.0,   -9.8,  -10.4,   -9.9,  -10.2,  -10.6,  -11.1,  -10.6,  -10.5,  -10.5,  -10.3,   -9.9,   -9.6,   -8.9,   -8.0,   -7.1,   -6.7,   -6.5,   -6.0,   -5.7,   -5.8,   -5.8,   -5.8,   -6.1,   -6.7,   -7.7,   -8.9,   -9.9,  -10.2,  -10.1,  -10.3,  -10.6,  -11.0,  -11.3,  -11.3,  -11.2,  -11.0,  -10.5,  -10.2,   -9.6,   -9.1,   -8.4,   -8.0,   -7.9
2011/03/14 10:20,   -5.2,   -6.3,   -6.1,   -6.4,   -6.3,   -6.7,   -6.7,   -6.6,   -6.3,   -5.7,   -5.3,   -5.5,   -5.5,   -6.0,   -7.1,   -7.7,   -7.9,   -8.2,   -8.5,   -8.2,   -8.1,   -8.2,   -8.6,   -8.6,   -8.6,   -8.7,  999.0,  999.0,  999.0,  999.0,  999.0,  999.0,   26.7,   26.0,  999.0,   26.0,   26.8,   25.9,   24.6,  999.0,  999.0,  999.0,  999.0,  999.0,  999.0,  999.0,   -7.4,   -8.1,   -8.5,   -8.8,   -8.9,   -8.6,   -8.4,   -8.4,   -8.6,   -8.4,   -8.7,   -9.4,  -10.0,  -10.2,  -10.0,  -10.1,  -10.3,  -10.3,  -10.1,   -9.8,   -9.3,   -8.5,   -8.1,   -7.5,   -6.9,   -6.6,   -6.1,   -5.9,   -5.8,   -5.6,   -5.7,   -5.8,   -5.9,   -6.3,   -7.4,   -8.7,  -10.0,  -11.1,  -11.8,  -12.1,  -12.2,  -12.4,  -12.4,  -12.1,  -11.6,  -11.2,  -10.9,  -10.3,   -9.5,   -8.8,   -8.5,   -8.2
2011/03/14 10:30,   -5.4,   -6.3,   -6.6,   -6.9,   -7.6,   -6.8,   -6.8,   -6.0,   -5.4,   -4.7,   -4.8,   -5.2,   -6.0,   -6.9,   -7.4,   -7.9,   -7.1,   -7.2,   -7.7,  999.0,  999.0,  999.0,  999.0,  999.0,  999.0,  999.0,  999.0,  999.0,  999.0,  999.0,   27.8,   28.4,   28.7,   28.3,   28.0,   28.1,  999.0,  999.0,  999.0,  999.0,  999.0,  999.0,  999.0,  999.0,  999.0,   -8.3,   -8.2,   -8.2,   -8.7,   -9.0,   -9.2,   -9.2,   -8.1,   -8.0,   -8.4,   -8.7,   -8.9,   -9.4,   -9.5,   -9.4,   -9.1,   -9.1,   -9.1,   -9.2,   -9.6,   -9.7,   -9.4,   -8.1,   -7.1,   -7.2,   -7.5,   -7.2,   -6.9,   -6.5,   -6.4,   -6.5,   -6.4,   -6.3,   -6.6,   -7.2,   -7.9,   -9.0,  -10.2,  -11.2,  -11.8,  -11.8,  -11.9,  -11.9,  -12.1,  -12.1,  -12.0,  -11.7,  -11.5,  -11.4,  -11.0,  -10.3,   -9.7,   -9.3
2011/03/14 10:40,   -4.8,   -5.1,   -5.7,   -6.0,   -6.3,   -5.9,   -5.8,   -5.0,   -4.3,   -3.9,   -3.3,   -3.8,   -5.2,   -5.9,   -5.6,   -5.4,   -5.0,   -5.6,   -5.3,   -5.3,   -4.2,   -3.7,   -4.0,   -2.6,   -2.9,   -4.1,   -5.2,   -5.1,   -4.7,   -4.0,   -3.9,   -4.4,   -3.1,   -4.0,   -2.8,   -3.0,   -2.9,  999.0,  999.0,   -5.0,   -5.1,   -5.2,   -4.2,  999.0,   -5.3,   -7.1,   -7.1,   -8.0,   -8.7,   -8.8,   -8.3,   -9.1,   -9.6,   -8.8,   -8.4,   -8.2,   -8.9,   -9.6,   -9.2,   -9.5,   -9.8,   -9.9,   -9.9,   -9.6,   -9.5,   -9.5,   -9.4,   -9.1,   -8.5,   -8.3,   -8.4,   -8.5,   -8.3,   -8.0,   -7.6,   -7.4,   -7.5,   -7.7,   -8.1,   -8.6,   -8.9,   -9.4,  -10.1,  -10.5,  -10.9,  -10.8,  -10.9,  -10.9,  -11.0,  -11.3,  -11.5,  -11.4,  -11.3,  -11.1,  -11.0,  -10.5,  -10.1,   -9.6
2011/03/14 10:50,   -0.2,    0.9,   -0.1,   -1.9,   -2.7,   -2.3,   -1.2,  999.0,  999.0,   -0.4,   -3.1,   -3.3,   -3.3,   -4.0,   -5.1,   -6.0,   -7.8,   -8.8,   -9.2,   -9.7,   -8.9,   -8.5,   -8.2,   -8.0,   -8.4,  999.0,  999.0,   -8.1,   -7.3,   -7.6,   -6.9,   -6.7,   -7.1,  999.0,  999.0,  999.0,  999.0,  999.0,  999.0,  999.0,  999.0,  999.0,  999.0,  999.0,  999.0,   -8.2,   -7.3,   -7.9,   -8.2,   -8.3,   -8.9,   -9.6,  -10.0,   -9.4,   -8.3,   -7.5,   -8.0,   -8.8,   -8.4,   -8.6,   -8.7,   -8.6,   -8.7,   -8.7,   -8.7,   -8.2,   -8.4,   -8.8,   -9.5,   -9.8,  -10.1,   -9.9,   -9.5,   -8.9,   -8.0,   -6.9,   -6.9,   -7.6,   -7.9,   -8.4,   -9.3,  -10.0,  -10.6,  -11.0,  -11.2,  -11.4,  -11.8,  -11.8,  -11.7,  -11.2,  -11.3,  999.0,  -10.7,  999.0,  999.0,  999.0,   -9.3,  999.0
2011/03/14 11:00,   -0.2,   -0.4,   -0.3,   -1.0,   -2.3,   -2.2,   -2.1,   -2.2,   -3.1,   -3.6,   -3.6,   -3.6,   -4.7,   -5.3,   -6.6,   -7.3,  999.0,   -7.8,   -7.7,   -7.6,   -6.8,  999.0,  999.0,  999.0,  999.0,  999.0,  -14.1,  -14.1,  -13.5,  -14.0,  -13.7,  -12.9,  -13.1,  999.0,  999.0,  999.0,  999.0,  999.0,  999.0,  999.0,  999.0,  999.0,  999.0,  999.0,  999.0,  999.0,   -9.4,   -8.6,   -9.0,   -8.4,   -8.5,   -8.6,   -9.0,   -9.3,   -9.2,   -8.5,   -8.3,   -9.1,   -9.5,   -9.5,   -9.3,   -8.8,   -8.7,   -8.6,   -8.7,   -8.6,   -9.0,   -9.5,   -9.7,   -9.8,   -9.8,   -9.8,   -9.9,   -9.0,   -8.5,   -8.1,   -8.2,   -8.3,   -8.5,   -9.1,   -9.8,  -10.7,  -11.4,  -11.6,  -11.7,  -11.7,  -11.7,  -11.8,  -11.8,  -11.8,  -11.3,  -10.9,  -11.3,  999.0,  -10.0,   -9.5,  999.0,  999.0
2011/03/14 11:10,   -0.6,   -0.5,   -0.9,   -2.3,   -2.0,   -1.2,   -1.0,   -2.4,   -3.0,   -3.5,   -4.2,   -4.6,   -4.7,   -5.3,   -6.0,   -5.8,  999.0,   -6.3,   -6.2,   -6.4,   -6.2,   -6.5,   -7.0,   -7.1,   -7.8,   -8.2,   -8.4,   -7.5,  999.0,   -7.8,   -7.7,  999.0,   -6.0,   -6.2,   -6.4,   -7.9,   -9.3,  999.0,   -9.8,  999.0,   -9.4,  999.0,  999.0,  999.0,  999.0,   -7.6,   -8.7,  999.0,  999.0,   -9.1,  999.0,  999.0,  999.0,  999.0,  999.0,   -8.4,   -9.2,   -9.3,   -9.0,   -9.1,   -8.8,   -8.8,   -8.2,   -8.3,   -8.4,   -9.2,   -9.8,  -10.1,  -10.3,  -10.3,   -9.7,   -9.5,   -9.5,   -9.3,   -9.3,   -9.0,   -9.3,   -9.6,   -9.8,  -10.1,  -10.6,  -10.8,  -11.1,  -11.7,  -12.2,  -12.3,  -12.2,  -12.1,  -11.8,  -11.8,  -11.1,  -10.1,  -10.3,   -9.8,  999.0,  -10.0,  999.0,  999.0
2011/03/14 11:20,   -0.3,   -1.0,   -1.8,   -2.0,   -1.6,   -1.2,   -1.2,   -2.2,   -3.7,   -4.5,   -4.2,   -4.3,   -4.8,   -5.1,   -5.8,   -5.6,   -5.4,   -5.2,   -5.6,   -6.5,   -6.4,   -6.6,   -7.0,   -7.5,   -7.8,   -8.1,   -8.3,   -8.0,   -7.9,   -8.2,   -8.3,   -7.8,   -7.0,   -6.1,   -6.2,   -7.1,   -8.2,  999.0,  999.0,  -10.1,   -9.7,   -9.2,   -9.4,  999.0,  999.0,   -7.6,  999.0,  999.0,   -8.8,   -9.2,   -9.1,  999.0,  999.0,  999.0,  999.0,   -6.7,   -7.8,   -9.0,   -9.1,   -8.6,   -7.9,   -7.9,   -7.3,   -7.2,   -7.4,   -8.2,   -8.8,   -9.5,   -9.6,   -9.3,   -8.8,   -9.1,   -9.4,   -9.7,   -9.7,   -9.6,   -9.7,   -9.6,   -9.7,  -10.0,  -10.2,  -10.2,  -10.7,  -11.3,  -11.9,  -12.1,  -12.6,  -12.3,  -11.5,  -11.3,  -10.8,  -10.4,   -9.7,   -9.7,   -9.7,   -9.9,  -10.4,  -10.5
2011/03/14 11:30,    0.0,   -1.2,   -2.0,  999.0,   -1.9,   -1.5,   -1.0,   -2.1,   -3.0,   -3.8,   -3.7,   -3.6,   -5.6,   -5.4,   -5.2,   -5.2,   -4.8,   -5.3,   -6.9,   -6.6,   -7.2,   -7.2,   -7.4,   -7.6,   -7.5,   -7.7,   -8.3,   -7.9,   -8.5,  -10.2,   -9.3,   -9.0,   -8.1,   -7.5,   -6.8,   -8.2,   -9.7,   -9.6,  -10.3,  999.0,  999.0,  999.0,  999.0,  999.0,  999.0,  999.0,  999.0,  999.0,  999.0,  999.0,  999.0,  999.0,  999.0,  999.0,  999.0,  999.0,   -8.5,   -9.1,   -8.6,   -8.5,   -8.3,   -7.8,   -7.6,   -7.0,   -7.0,   -7.9,   -8.7,   -9.4,   -9.5,   -9.1,   -8.9,   -9.4,   -9.8,  -10.1,  -10.3,  -10.1,  -10.0,  -10.0,  -10.0,  -10.0,  -10.0,  -10.3,  -10.7,  -10.8,  -11.1,  -11.6,  -11.8,  -12.4,  -11.3,  -10.2,   -9.9,   -9.4,   -8.9,   -9.1,   -9.5,   -9.5,   -9.7,  999.0
2011/03/14 11:40,    0.2,   -0.1,   -0.5,   -0.5,   -0.7,   -0.5,   -0.8,   -3.1,   -3.6,   -4.0,   -4.0,   -4.4,   -5.6,   -6.2,   -6.3,   -5.6,   -6.3,   -6.7,   -6.5,   -7.1,   -7.6,   -7.0,   -7.6,   -7.8,   -7.3,  999.0,  999.0,   -8.0,   -8.4,   -9.6,  -10.0,   -8.2,   -8.7,  999.0,   -7.3,   -8.4,   -9.5,  999.0,  999.0,   -9.6,   -9.7,  999.0,  999.0,  999.0,  999.0,  999.0,  999.0,  999.0,  999.0,  999.0,   -8.6,   -9.0,   -8.2,   -8.1,   -8.4,   -8.3,   -8.7,   -8.5,   -8.5,   -8.7,   -8.7,   -8.4,   -8.0,   -7.5,   -6.8,   -7.5,   -8.1,   -9.0,   -9.9,   -9.6,   -9.7,   -9.8,  -10.0,  -10.3,  -10.5,  -10.7,  -10.8,  -10.9,  -10.6,  -10.5,  -10.3,  -10.3,  -10.5,  -10.9,  -10.8,  -10.8,  -10.7,  -11.0,  -11.2,  -10.8,  999.0,   -8.7,   -8.7,   -8.8,   -9.6,  999.0,   -9.6,  999.0
2011/03/14 11:50,    0.4,    0.0,    0.3,   -1.2,   -2.1,   -2.2,   -2.6,   -3.9,   -4.1,   -4.4,   -4.0,   -4.3,   -5.3,   -5.8,   -6.2,   -6.0,   -6.8,   -6.1,   -6.6,   -6.7,   -7.2,   -7.3,   -6.9,   -7.5,   -7.0,   -6.9,   -7.4,   -7.7,   -8.1,   -8.8,   -9.2,   -7.2,   -7.6,   -7.4,   -7.5,   -7.9,   -8.6,   -9.5,   -9.6,  999.0,  999.0,  999.0,  999.0,  999.0,  999.0,  999.0,  999.0,   -9.7,  999.0,   -8.7,   -7.6,   -7.1,   -7.4,   -7.9,   -8.5,   -8.5,   -8.4,   -8.4,   -8.8,   -9.1,   -9.1,   -8.9,   -8.7,   -8.6,   -7.9,   -7.8,   -8.2,   -9.0,   -9.8,   -9.7,   -9.7,   -9.9,   -9.9,  -10.0,  -10.4,  -10.9,  -11.3,  -11.4,  -11.7,  -11.8,  -11.1,  -10.3,  -10.6,  -11.1,  -11.7,  -11.4,  -11.6,  999.0,  999.0,  -11.1,  999.0,  999.0,  999.0,  999.0,  999.0,  999.0,  999.0,  999.0
2011/03/14 12:00,    0.1,    0.1,   -0.1,   -1.9,   -2.3,   -1.8,   -3.0,   -4.0,  999.0,  999.0,  999.0,   -7.5,  999.0,   -7.7,   -7.8,   -6.8,   -6.8,   -6.9,   -7.0,   -6.8,  999.0,  999.0,   -7.0,   -7.6,  999.0,  999.0,  999.0,  999.0,  999.0,  999.0,  999.0,  999.0,  999.0,  999.0,   -7.9,   -8.2,   -8.9,   -9.2,   -8.8,   -8.8,   -7.8,   -8.1,   -8.4,   -7.4,   -7.8,   -7.5,   -8.1,   -8.1,   -8.0,   -7.9,   -6.9,   -7.1,   -7.5,   -8.5,   -9.4,   -9.6,   -9.2,   -9.3,   -9.1,   -9.3,   -9.4,   -9.1,   -8.6,   -8.7,   -8.8,   -9.2,   -9.4,   -9.8,  -10.2,  -10.4,  -10.2,   -9.9,  -10.3,  -10.9,  -11.1,  -11.3,  -11.7,  -12.1,  -12.6,  -12.4,  -11.8,  -11.5,  -11.6,  -11.6,  -12.2,  -12.4,  999.0,  999.0,  999.0,  999.0,  999.0,  999.0,  999.0,  999.0,  999.0,  999.0,  999.0,  999.0
2011/03/14 12:10,    0.3,    0.3,    0.0,   -0.8,   -1.0,   -1.6,   -1.3,   -5.6,   -5.8,   -4.6,   -3.9,   -5.0,   -5.9,   -7.5,   -7.2,   -7.4,   -7.4,   -7.8,   -7.3,   -7.4,   -7.2,   -7.3,  999.0,  999.0,  999.0,  999.0,  999.0,   -7.3,   -9.4,  -10.1,   -9.6,   -9.3,   -8.2,   -8.2,   -9.8,  -10.7,  -10.2,  -11.3,  -10.5,   -8.5,   -7.8,   -7.8,   -8.1,   -7.8,   -8.0,   -8.0,   -8.8,   -9.3,   -8.5,   -8.2,   -8.0,   -7.7,   -8.2,   -9.0,   -9.9,  -10.3,  -10.2,   -9.4,   -9.0,   -9.3,   -9.5,   -9.4,   -9.3,   -9.4,   -9.9,  -10.4,  -10.6,  -10.6,  -10.7,  -10.9,  -11.0,  -11.1,  -10.9,  -11.0,  -11.3,  -11.7,  -12.3,  -12.2,  -12.2,  -11.9,  -11.6,  -11.7,  -12.0,  -12.0,  999.0,  999.0,  999.0,  999.0,  999.0,  999.0,  999.0,  999.0,  999.0,  999.0,  999.0,  999.0,  999.0,  999.0
2011/03/14 12:20,    3.3,    2.6,    1.5,  999.0,   -4.7,   -4.9,   -2.1,   -1.9,   -0.6,   -0.3,   -0.3,    0.1,   -0.6,  999.0,  999.0,   -6.1,   -7.4,   -6.3,   -6.4,   -7.1,   -7.6,   -6.9,   -7.8,   -6.7,   -7.0,   -6.5,   -6.3,   -6.2,   -9.2,   -9.0,   -7.7,   -5.0,   -5.7,   -7.5,   -8.8,   -8.4,   -8.3,   -9.6,   -7.6,   -7.5,   -8.2,  -10.7,   -9.4,  999.0,  999.0,  999.0,  999.0,   -9.5,   -8.6,   -8.7,   -9.4,   -9.8,  -10.1,  -10.2,  -11.0,  -11.1,  -10.4,  -10.5,   -9.6,   -8.9,   -9.1,   -9.5,  -10.1,  -10.3,  -10.4,  -10.0,   -9.9,  -10.2,  -10.3,  -10.5,  -10.8,  -10.9,  -11.2,  -11.4,  -11.7,  -12.4,  -12.8,  -13.1,  -12.4,  999.0,  999.0,  999.0,  999.0,  999.0,  999.0,  999.0,  999.0,  999.0,  999.0,  999.0,  999.0,  999.0,  999.0,  999.0,  999.0,  999.0,  999.0,  999.0
2011/03/14 12:30,    2.6,    1.2,    0.4,    0.0,   -1.1,    0.3,   -1.2,   -3.0,   -2.9,   -4.2,   -5.1,   -6.0,   -6.1,   -7.2,   -6.1,   -6.4,   -6.4,  999.0,   -6.7,   -6.5,   -6.6,   -5.9,   -5.3,   -6.2,   -5.6,   -6.2,   -6.8,   -6.9,   -7.4,   -7.7,   -8.1,   -8.4,   -7.8,   -7.9,   -9.3,   -7.1,  999.0,   -7.3,   -8.8,   -7.1,   -7.8,   -8.7,   -9.1,   -7.0,  999.0,  999.0,  999.0,  -10.2,  -10.3,  -10.7,  -10.9,  -11.5,  -11.6,  -11.4,  -10.8,  -10.3,   -9.9,   -9.8,   -9.5,   -9.4,   -9.4,   -9.1,   -8.8,   -8.7,   -8.8,   -8.8,   -9.1,   -9.8,  -10.2,  -10.5,  -10.9,  -10.8,  -10.8,  -10.9,  -10.9,  -11.7,  -12.5,  -10.8,  999.0,  999.0,  999.0,  999.0,  999.0,  999.0,  999.0,  999.0,  999.0,  999.0,  999.0,  999.0,  999.0,  999.0,  999.0,  999.0,  999.0,  999.0,  999.0,  999.0
2011/03/14 12:40,    0.2,    0.1,  999.0,    0.2,   -0.2,   -0.4,   -1.0,   -1.8,   -3.1,   -3.3,  999.0,   -4.1,   -4.4,   -4.7,  999.0,  999.0,  999.0,  999.0,  999.0,  999.0,  999.0,    6.7,  999.0,  999.0,  999.0,  999.0,  999.0,  999.0,  999.0,  999.0,  999.0,   -6.1,   -6.4,   -5.9,   -4.8,   -6.4,   -7.3,   -6.1,   -6.4,   -7.0,   -7.1,  999.0,  999.0,  999.0,  999.0,  999.0,  999.0,  999.0,  -10.4,   -9.8,  -10.7,  999.0,  999.0,  999.0,  999.0,  -10.4,  -10.3,  -10.1,  -10.3,  -10.5,  -10.3,  -10.1,  -10.0,   -9.9,   -9.7,   -9.4,   -9.2,   -9.2,   -9.3,   -9.4,   -9.7,   -9.9,  -10.0,  -10.3,  -10.5,  -10.7,  -10.7,  -11.0,  999.0,  999.0,  999.0,  999.0,  999.0,  999.0,  999.0,  999.0,  999.0,  999.0,  999.0,  999.0,  999.0,  999.0,  999.0,  999.0,  999.0,  999.0,  999.0,  999.0
2011/03/14 12:50,    0.4,    0.2,    0.1,    0.1,   -0.5,   -0.2,   -0.2,   -1.3,   -2.7,   -3.6,   -4.4,   -5.5,   -6.0,   -3.6,  999.0,  999.0,  999.0,  999.0,  999.0,  999.0,   -5.5,   -4.7,   -4.0,   -4.1,   -5.7,   -6.4,   -6.1,   -6.4,   -6.6,   -6.5,   -6.8,   -7.1,   -7.1,   -6.4,   -6.7,   -7.0,   -7.4,   -7.5,   -9.3,   -9.9,  -10.6,  -11.1,  -10.7,   -9.6,  999.0,  999.0,  -10.9,  -10.5,  -10.6,  -10.3,   -9.3,   -8.7,   -8.3,   -8.3,   -8.4,   -8.1,   -7.8,   -7.9,   -8.1,   -8.5,   -8.7,   -9.0,   -9.0,   -9.0,   -9.0,   -8.9,   -8.9,   -9.0,   -9.3,   -9.7,   -9.9,   -9.8,   -9.8,  -10.0,  -10.2,  -10.4,  -10.2,   -9.9,   -9.4,  999.0,  999.0,  999.0,  999.0,  999.0,  999.0,  999.0,  999.0,  999.0,  999.0,  999.0,  999.0,  999.0,  999.0,  999.0,  999.0,  999.0,  999.0,  999.0
2011/03/14 13:00,    6.3,    5.8,    4.4,    2.4,    1.6,   -3.8,   -4.0,   -4.1,   -3.0,   -3.3,   -1.9,   -2.8,   -5.5,   -5.1,   -5.7,   -6.4,   -6.5,   -6.8,   -7.8,   -5.1,   -6.0,   -5.2,   -4.1,   -6.0,   -6.3,  999.0,   -7.3,   -7.4,   -7.5,   -8.4,   -9.1,  -10.0,   -9.2,   -9.2,   -9.4,   -9.1,   -9.1,   -9.4,  -11.4,  -12.0,  -12.3,  -11.2,  999.0,  999.0,  999.0,  -10.9,  -11.2,  -10.8,  -10.4,  -10.0,  -10.1,   -9.9,   -9.6,   -9.7,   -9.6,   -8.8,   -8.1,   -7.9,   -7.6,   -8.0,   -8.2,   -8.1,   -8.1,   -8.2,   -8.7,   -9.3,   -9.2,   -9.3,   -9.5,   -9.5,   -9.4,   -9.6,   -9.5,   -9.7,  -10.4,  -10.5,  999.0,  999.0,  999.0,  999.0,  999.0,  999.0,  999.0,  999.0,  999.0,  999.0,  999.0,  999.0,  999.0,  999.0,  999.0,  999.0,  999.0,  999.0,  999.0,  999.0,  999.0,  999.0
2011/03/14 13:10,    3.4,    4.0,    3.9,    1.9,    2.3,  999.0,  999.0,   -1.7,  999.0,  999.0,   -1.9,   -3.4,   -4.0,   -5.2,   -4.9,   -5.1,   -4.8,   -4.9,   -5.2,   -6.0,   -6.0,   -4.8,   -3.4,   -4.1,   -5.5,   -7.0,   -7.9,   -7.2,   -8.3,   -7.8,   -8.0,   -8.5,   -8.3,   -6.8,   -6.9,   -6.4,   -6.5,  999.0,  999.0,  -10.5,  -10.9,  -11.2,  999.0,  999.0,  999.0,  999.0,  -12.3,  -12.0,  -11.3,  -10.5,  -10.2,  -10.2,  -10.1,   -9.8,   -9.4,   -9.3,   -9.0,   -8.5,   -8.5,   -8.1,   -8.1,   -7.9,   -8.0,   -8.2,   -8.5,   -9.1,   -9.5,   -9.6,   -9.7,   -9.7,   -9.7,   -9.9,   -9.9,  -10.0,  999.0,  999.0,  999.0,  999.0,  999.0,  999.0,  999.0,  999.0,  -12.9,  999.0,  999.0,  999.0,  999.0,  999.0,  999.0,  999.0,  999.0,  999.0,  999.0,  999.0,  999.0,  999.0,  999.0,  999.0
2011/03/14 13:20,    0.3,    0.1,  999.0,    0.3,    0.2,   -0.1,   -0.0,   -0.7,   -1.9,   -1.9,   -3.0,   -2.8,   -3.5,   -4.6,   -4.5,   -5.2,   -4.4,   -5.1,   -4.7,   -4.0,   -6.2,  999.0,  999.0,  999.0,   -0.7,   -0.7,    0.2,    0.6,  999.0,  999.0,  999.0,   -8.3,   -7.8,   -6.9,   -6.7,   -6.1,   -6.8,   -7.6,   -8.8,  -10.0,  -10.1,  -10.1,   -9.9,   -9.7,  999.0,  999.0,  -10.7,  -10.9,  -10.6,  -10.2,  -10.4,   -9.6,  -10.2,  -10.9,  -11.0,  -10.4,  -10.1,  -10.5,  -10.8,  -10.7,  -10.1,   -9.8,   -8.9,   -8.7,   -8.9,   -9.3,   -9.5,   -9.5,   -9.7,  -10.0,   -9.9,   -9.8,  999.0,  999.0,  999.0,  999.0,  999.0,  999.0,  999.0,  999.0,  999.0,  999.0,  999.0,  999.0,  999.0,  999.0,  999.0,  999.0,  999.0,  999.0,  999.0,  999.0,  999.0,  999.0,  999.0,  999.0,  999.0,  999.0
2011/03/14 13:30,    0.2,    0.4,    0.2,    0.5,    1.4,    0.1,   -0.0,   -0.3,   -1.1,   -2.8,   -3.3,   -2.6,   -4.0,   -4.7,   -5.1,   -5.2,   -5.4,   -5.8,   -7.0,   -6.9,   -6.1,   -5.8,   -5.4,   -5.3,   -5.8,   -6.5,   -7.1,  999.0,  999.0,   -7.2,   -8.4,  999.0,   -6.2,   -4.6,  999.0,  999.0,   -4.5,   -4.3,   -5.5,   -2.8,  999.0,  999.0,  999.0,  999.0,  999.0,  999.0,  999.0,  999.0,  999.0,  -11.1,  -10.9,  -10.9,   -9.5,  -10.1,  -10.5,  -11.1,  -10.8,  -10.8,  -11.4,  -11.6,  -11.7,  -11.5,  -11.6,  -11.4,  -10.0,  -10.2,   -9.8,   -9.5,   -9.6,   -9.5,   -9.7,   -9.5,  999.0,  999.0,  999.0,  999.0,  999.0,  999.0,  999.0,  999.0,  999.0,  999.0,  999.0,  999.0,  999.0,  999.0,  999.0,  999.0,  999.0,  999.0,  999.0,  999.0,  999.0,  999.0,  999.0,  999.0,  999.0,  999.0
2011/03/14 13:40,    0.3,    0.3,    0.1,  999.0,  999.0,  999.0,  999.0,  999.0,   -1.6,   -1.8,   -2.4,   -3.7,   -4.5,   -4.9,   -4.9,   -5.7,   -5.5,   -6.3,   -6.2,   -7.2,   -7.0,   -6.7,   -7.2,   -6.5,   -6.0,   -6.8,   -6.8,  999.0,  999.0,   -7.7,   -8.7,   -8.2,   -8.3,   -7.5,   -7.2,   -7.5,   -8.8,  999.0,  999.0,  999.0,  999.0,  999.0,  999.0,  999.0,  999.0,  999.0,  -11.9,  999.0,  -11.6,  -12.5,  -12.6,  -12.6,  -13.5,  999.0,  -12.5,  999.0,  999.0,  -12.5,  -12.5,  999.0,  999.0,  999.0,  999.0,  999.0,  999.0,  -10.7,  -10.3,  -10.3,   -9.7,   -9.4,  999.0,  999.0,  999.0,  999.0,  999.0,  999.0,  999.0,  999.0,  999.0,   -7.2,   -7.5,   -7.7,   -7.8,   -7.9,  999.0,  999.0,  999.0,  999.0,  999.0,  999.0,  999.0,  999.0,  999.0,  999.0,  999.0,  999.0,  999.0,  999.0
2011/03/14 13:50,    0.1,    0.5,    0.2,    0.5,    0.4,  999.0,  999.0,   -0.3,   -1.1,   -1.3,   -2.3,   -3.2,   -3.8,   -4.7,   -5.0,   -4.9,   -5.6,   -6.3,   -7.2,   -7.1,   -7.5,   -7.8,   -7.3,   -7.1,   -6.7,  999.0,  999.0,  999.0,  999.0,  999.0,  999.0,  999.0,   -7.7,   -7.9,   -8.9,   -9.7,  999.0,  999.0,  999.0,  999.0,  999.0,  999.0,  999.0,  999.0,  999.0,  999.0,  999.0,  -11.3,  -12.1,  -12.7,  -12.1,  -12.0,  -12.9,  999.0,  -12.6,  -13.3,  999.0,  999.0,  999.0,  -13.2,  999.0,  999.0,  999.0,  999.0,  999.0,  999.0,  999.0,  999.0,  999.0,  999.0,  999.0,  999.0,  999.0,  999.0,  999.0,   -7.7,   -7.5,   -7.6,   -7.3,   -7.2,   -7.1,   -7.0,   -7.1,   -7.3,   -7.6,  999.0,  999.0,  999.0,  999.0,  999.0,  999.0,  999.0,  999.0,  999.0,  999.0,  999.0,  999.0,   -6.6
2011/03/14 14:00,    0.1,    0.3,    0.3,    0.6,    0.3,  999.0,   -0.1,   -0.2,   -0.7,   -1.4,   -2.1,   -2.5,   -3.4,   -3.9,   -4.5,   -4.8,   -5.2,   -5.7,   -5.9,   -6.1,   -6.5,   -6.5,   -6.7,   -7.1,   -7.6,  999.0,  999.0,  999.0,  999.0,  999.0,  999.0,  999.0,  999.0,   -8.8,  999.0,  999.0,  999.0,  999.0,  999.0,  999.0,  999.0,  999.0,  999.0,  999.0,  999.0,  999.0,  999.0,  -11.8,  -11.1,  -11.8,  -11.7,  -11.7,  -12.2,  999.0,  999.0,  -12.9,  999.0,  999.0,  999.0,  999.0,  999.0,  999.0,  999.0,  999.0,  999.0,  999.0,  999.0,  999.0,  999.0,  999.0,  999.0,  999.0,  999.0,  999.0,  999.0,  999.0,  999.0,  999.0,   -6.7,   -6.5,   -5.9,   -5.8,   -6.0,   -6.2,   -6.1,   -6.3,   -6.5,   -6.8,   -7.0,   -7.1,   -7.4,   -7.4,   -7.5,   -7.8,   -7.7,   -7.4,   -7.1,   -7.2
2011/03/14 14:10,    0.1,    0.3,    0.2,    1.0,    0.7,    0.2,   -0.4,   -0.2,   -1.4,   -2.3,   -2.8,   -3.7,   -4.0,   -3.8,   -4.8,   -5.6,   -6.0,   -5.8,   -6.0,   -6.1,   -6.3,   -7.0,   -6.9,   -6.6,   -6.8,   -7.0,  999.0,  999.0,  999.0,   -4.3,   -4.6,   -4.3,  999.0,   -9.3,  999.0,  999.0,  999.0,  999.0,  -12.9,  -13.0,  -13.5,  -13.4,  -13.4,  -14.3,  -11.8,  -12.1,  -13.1,  -11.7,  -11.1,  -10.6,  -11.0,  -11.6,  -11.4,  999.0,  999.0,  999.0,  999.0,  999.0,  999.0,  999.0,  999.0,  999.0,  999.0,  999.0,  999.0,  999.0,  999.0,  999.0,  999.0,  999.0,  999.0,  999.0,  999.0,  999.0,   -9.5,   -9.6,   -9.6,   -9.1,   -7.6,   -6.7,   -6.9,   -6.7,   -6.6,   -6.7,   -6.6,   -6.5,   -6.4,   -6.7,   -7.0,   -7.4,   -7.4,   -7.4,   -7.5,   -7.7,   -7.7,   -7.5,   -7.5,   -7.9
2011/03/14 14:20,    0.2,    0.3,    0.3,    0.3,    0.6,   -0.2,   -0.2,   -0.2,  999.0,   -2.7,   -3.5,   -4.2,   -5.0,   -5.5,   -5.8,   -6.0,   -6.9,   -5.6,   -6.0,   -6.5,   -7.0,   -7.6,  999.0,   -6.4,  999.0,   -6.9,  999.0,  999.0,  999.0,  999.0,  999.0,   -7.1,  -10.8,   -9.5,  999.0,  -13.4,  -11.3,  -11.7,  999.0,  999.0,  999.0,  999.0,  999.0,  999.0,  999.0,  999.0,  999.0,  999.0,  999.0,  999.0,  -10.6,  -11.1,   -9.9,   -9.6,   -8.9,   -8.8,   -9.1,   -9.3,   -9.3,   -9.5,   -9.8,   -9.8,   -9.8,   -9.6,  -10.2,  999.0,  999.0,  999.0,  999.0,  999.0,  999.0,  -10.3,  -10.3,  -10.1,  -10.0,   -9.9,   -9.9,   -9.2,   -8.5,   -7.8,   -7.7,   -7.6,   -7.7,   -7.6,   -7.4,   -7.1,   -7.2,   -7.2,   -7.1,   -7.1,   -7.4,   -7.6,   -7.6,   -7.9,   -7.8,   -7.4,   -7.8,   -7.9
2011/03/14 14:30,    0.0,    0.2,    0.3,  999.0,    1.5,    0.1,    0.2,    0.2,   -0.3,   -1.2,   -3.0,   -2.7,   -3.4,   -4.7,   -5.2,   -5.9,   -6.0,   -5.7,   -6.7,   -7.4,   -7.2,   -7.3,   -6.3,   -6.5,   -7.4,   -7.3,  999.0,  999.0,  999.0,   -6.4,   -6.4,   -7.0,   -7.0,   -7.1,   -8.4,  999.0,  999.0,  999.0,   -8.7,  -11.6,  999.0,   -7.0,  999.0,   -3.4,   -3.7,   -3.8,   -4.1,   -3.7,   -5.6,   -6.2,   -5.4,   -5.8,   -6.4,   -6.2,   -5.8,   -6.4,   -7.5,  999.0,   -8.7,   -8.8,   -9.8,  -10.3,  -10.2,  -10.1,   -9.8,   -8.2,   -7.8,   -7.9,   -8.3,   -8.8,   -9.3,   -9.5,   -9.7,  -10.0,   -9.8,   -9.4,   -9.0,   -8.4,   -8.1,   -8.0,   -7.7,   -7.7,   -7.7,   -7.7,   -7.6,   -7.3,   -7.5,   -7.7,   -7.5,   -7.0,   -6.9,   -7.3,   -7.2,  999.0,  999.0,  999.0,  999.0,  999.0
2011/03/14 14:40,   -0.4,   -0.1,    0.2,    1.0,  999.0,    0.1,    0.0,  999.0,    0.6,   -0.7,  999.0,   -4.2,   -3.1,   -5.0,   -5.6,   -6.1,   -6.6,   -6.6,   -7.0,   -7.4,   -7.0,   -6.8,   -7.2,   -7.3,   -7.9,   -7.2,   -6.1,   -5.4,   -6.0,   -6.0,   -6.0,   -6.4,   -7.6,  999.0,  999.0,  999.0,  999.0,  999.0,  999.0,  999.0,  999.0,  999.0,   -3.0,   -3.4,   -4.1,   -5.1,   -4.8,   -6.3,   -6.6,   -5.9,   -6.4,  999.0,   -4.6,   -5.5,   -5.9,   -7.3,   -7.8,   -8.6,   -8.9,   -9.3,   -9.2,   -9.2,  -10.0,  -10.6,  -10.7,  -10.2,   -9.6,   -8.2,   -8.0,   -7.8,   -8.2,   -8.6,   -8.9,   -9.1,   -9.1,   -8.8,   -8.7,   -8.3,   -8.3,   -8.3,   -7.9,   -7.6,   -7.6,   -7.5,   -7.3,   -7.4,   -7.7,   -8.2,   -7.3,   -6.4,   -6.7,   -7.0,  999.0,  999.0,  999.0,  999.0,  999.0,  999.0
2011/03/14 14:50,    0.1,    0.0,    0.2,  999.0,    2.2,    0.2,    0.3,    0.3,   -0.5,   -0.4,   -1.0,   -2.0,   -3.7,   -3.4,   -4.4,   -5.0,   -5.1,   -4.8,   -5.0,   -5.4,   -6.1,   -5.7,   -5.7,   -7.1,   -7.9,   -7.3,   -5.7,   -5.3,   -5.6,   -4.4,   -5.0,   -4.1,  999.0,  999.0,  999.0,  999.0,  999.0,  999.0,  999.0,  999.0,  999.0,   -3.0,  999.0,  999.0,  999.0,  999.0,  999.0,  999.0,  999.0,  999.0,  999.0,  999.0,   -5.1,   -6.8,   -7.5,   -7.2,   -7.3,   -7.5,   -8.4,   -8.8,   -9.5,   -9.2,  -10.2,  -10.7,  -10.5,  -10.4,  -10.2,   -9.2,   -8.1,   -7.7,   -8.3,   -8.9,   -8.9,   -8.6,   -8.8,   -8.7,   -8.5,   -8.2,   -7.8,   -7.8,   -7.7,   -7.5,   -7.6,   -7.4,   -7.5,   -7.7,   -7.9,  999.0,  999.0,  999.0,  999.0,  999.0,  999.0,  999.0,  999.0,  999.0,  999.0,  999.0
2011/03/14 15:00,    0.1,    0.2,    0.2,  999.0,  999.0,    0.5,    0.4,    0.0,   -0.1,   -1.1,   -1.8,   -2.4,   -3.1,   -3.3,   -4.5,   -5.7,   -5.6,   -5.5,   -5.8,   -6.3,   -6.6,   -6.6,   -7.0,  999.0,   -6.1,   -7.1,   -6.1,   -5.3,   -5.3,   -5.4,   -5.7,   -6.4,   -7.3,  999.0,   -7.1,   -7.1,   -7.2,   -7.9,   -8.7,  999.0,  999.0,   -7.1,  999.0,   -7.7,  999.0,  999.0,   -7.2,  999.0,   -8.7,  999.0,  999.0,   -7.4,   -9.3,  999.0,  999.0,  999.0,  999.0,  999.0,   -9.0,   -9.6,   -9.7,   -9.5,  -10.2,  -10.6,  -10.6,  -10.1,   -9.8,   -9.7,   -8.1,   -7.3,   -7.8,   -8.5,   -8.7,   -8.7,   -8.7,   -8.4,   -8.4,   -8.2,   -7.7,   -7.4,   -7.0,   -6.9,   -7.0,  999.0,  999.0,  999.0,  999.0,  999.0,  999.0,  999.0,  999.0,  999.0,  999.0,  999.0,  999.0,  999.0,  999.0,  999.0
2011/03/14 15:10,    0.1,    0.5,    0.4,    1.6,    2.1,    0.9,   -0.1,   -1.7,   -1.5,   -4.3,   -2.0,   -2.7,   -1.9,  999.0,  999.0,   -6.1,   -7.1,   -4.1,   -5.6,   -7.1,   -6.3,   -7.3,   -7.2,   -7.6,   -8.2,   -9.2,   -9.1,   -7.6,   -6.6,   -6.5,   -5.9,   -6.3,   -6.4,   -6.9,   -7.3,   -7.4,   -7.8,   -7.5,  999.0,  999.0,  999.0,  999.0,  999.0,   -7.7,   -7.4,  999.0,   -8.5,  999.0,  999.0,  999.0,   -8.4,   -9.0,  -10.4,  999.0,  999.0,  999.0,  999.0,  999.0,  999.0,  999.0,  999.0,  999.0,  999.0,  999.0,  999.0,  999.0,  999.0,  999.0,  999.0,  999.0,  999.0,  999.0,  999.0,  999.0,  999.0,  999.0,  999.0,  999.0,  999.0,  999.0,  999.0,  999.0,  999.0,  999.0,  999.0,  999.0,  999.0,  999.0,  999.0,  999.0,  999.0,  999.0,  999.0,  999.0,  999.0,  999.0,  999.0,  999.0
2011/03/14 15:20,    0.4,    0.4,    0.2,    1.6,    1.3,    0.5,   -0.1,   -1.4,   -2.1,   -2.7,   -3.6,   -3.7,   -3.5,   -5.4,  999.0,   -5.6,   -5.9,   -7.1,   -6.8,   -6.7,   -6.5,   -6.2,   -6.2,   -6.8,   -7.6,   -8.2,   -9.0,   -8.6,   -7.4,   -5.9,   -4.9,   -4.5,   -4.0,   -5.3,   -6.3,   -6.6,   -6.0,  999.0,  999.0,  999.0,  999.0,  999.0,  999.0,  999.0,  999.0,  999.0,  999.0,  999.0,  999.0,  999.0,  999.0,   -9.7,  -10.2,  999.0,  999.0,  999.0,  999.0,  999.0,  999.0,  999.0,  999.0,  999.0,  999.0,  999.0,  999.0,  999.0,  999.0,  999.0,  999.0,  999.0,  999.0,  999.0,  999.0,  999.0,  999.0,  999.0,  999.0,  999.0,  999.0,  999.0,  999.0,  999.0,  999.0,  999.0,  999.0,  999.0,  999.0,  999.0,  999.0,  999.0,  999.0,  999.0,  999.0,  999.0,  999.0,  999.0,  999.0,  999.0
2011/03/14 15:30,    0.1,    0.3,    0.3,    1.0,  999.0,    0.1,   -2.3,   -3.2,   -4.4,   -5.5,   -3.9,   -4.8,   -4.0,  999.0,  999.0,  999.0,  999.0,  999.0,  999.0,  999.0,  999.0,   -7.5,   -8.2,  999.0,  999.0,   -9.1,   -9.4,   -9.5,   -8.8,   -8.1,   -7.0,   -7.2,   -6.0,   -5.7,   -5.6,   -6.4,   -6.8,  999.0,  999.0,  999.0,  999.0,  999.0,  999.0,  999.0,  999.0,  999.0,  999.0,  999.0,  999.0,  999.0,  999.0,  999.0,   -8.7,  999.0,  999.0,  999.0,  999.0,  999.0,  999.0,  999.0,  999.0,  999.0,  999.0,  999.0,  999.0,  999.0,  999.0,  999.0,  999.0,  999.0,  999.0,  999.0,  999.0,  999.0,  999.0,  999.0,  999.0,  999.0,  999.0,  999.0,  999.0,  999.0,  999.0,  999.0,  999.0,  999.0,  999.0,  999.0,  999.0,  999.0,  999.0,  999.0,  999.0,  999.0,  999.0,  999.0,  999.0,  999.0
2011/03/14 15:40,    0.2,    0.4,    0.3,    1.4,    0.9,   -0.5,   -0.3,   -0.6,   -0.7,   -1.2,   -1.7,   -2.3,   -2.8,   -3.8,   -4.7,   -5.8,   -6.5,   -7.0,   -7.0,   -7.3,   -7.2,   -7.4,   -7.4,   -7.3,   -7.6,   -8.1,   -7.9,   -7.1,   -6.4,   -5.8,   -5.8,   -5.5,   -5.4,   -5.0,  999.0,   -4.7,   -5.0,   -5.7,   -6.8,   -6.8,  999.0,  999.0,  999.0,   -6.3,  999.0,   -6.0,  999.0,   -4.6,   -6.1,   -6.9,   -7.0,   -7.3,   -7.6,  999.0,  999.0,  999.0,  999.0,  999.0,  999.0,  999.0,  999.0,  999.0,  999.0,  999.0,  999.0,  999.0,  999.0,  999.0,  999.0,  999.0,  999.0,  999.0,  999.0,  999.0,  999.0,  999.0,  999.0,  999.0,  999.0,  999.0,  999.0,  999.0,  999.0,  999.0,  999.0,  999.0,  999.0,  999.0,  999.0,  999.0,  999.0,  999.0,  999.0,  999.0,  999.0,  999.0,  999.0,  999.0
2011/03/14 15:50,  999.0,    0.3,    0.6,    1.5,    0.9,   -0.2,   -0.2,   -0.4,   -1.0,   -1.4,   -2.0,   -2.5,   -3.8,   -4.2,   -4.7,   -5.1,   -5.4,   -6.3,   -6.4,   -6.0,   -5.7,   -6.0,   -6.1,   -5.7,   -6.2,   -7.0,   -7.2,   -6.8,   -5.6,   -5.8,   -6.2,   -6.1,   -6.5,   -6.4,   -6.0,   -6.6,   -6.7,   -6.5,   -7.1,  999.0,  999.0,  999.0,   -6.0,   -6.6,   -5.6,  999.0,  999.0,   -5.7,   -7.0,   -7.7,  999.0,  999.0,  999.0,  999.0,  999.0,  999.0,  999.0,  999.0,  999.0,  999.0,  999.0,  999.0,  999.0,  999.0,  999.0,  999.0,  999.0,  999.0,  999.0,  999.0,  999.0,  999.0,  999.0,  999.0,  999.0,  999.0,  999.0,  999.0,  999.0,  999.0,  999.0,  999.0,  999.0,  999.0,  999.0,  999.0,  999.0,  999.0,  999.0,  999.0,  999.0,  999.0,  999.0,  999.0,  999.0,  999.0,  999.0,  999.0
2011/03/14 16:00,   -0.0,    0.2,    0.8,    1.0,    0.6,    0.1,   -0.0,   -0.3,   -0.5,  999.0,  999.0,   -2.5,   -4.2,   -4.5,   -4.9,   -5.1,   -5.1,   -5.3,   -4.8,   -4.4,   -3.9,   -4.1,   -4.2,   -4.2,   -5.1,   -5.8,   -5.6,   -4.8,   -4.5,   -4.7,   -5.2,   -6.0,   -6.4,   -6.8,   -6.9,   -7.1,   -6.9,   -6.2,   -6.6,   -6.3,  999.0,  999.0,   -6.5,  999.0,  999.0,  999.0,   -6.3,   -7.1,   -8.4,  999.0,  999.0,  999.0,  999.0,  999.0,  999.0,  999.0,  999.0,  999.0,  999.0,  999.0,  999.0,  999.0,  999.0,  999.0,  999.0,  999.0,  999.0,  999.0,  999.0,  999.0,  999.0,  999.0,  999.0,  999.0,  999.0,  999.0,  999.0,  999.0,  999.0,  999.0,  999.0,  999.0,  999.0,  999.0,  999.0,  999.0,  999.0,  999.0,  999.0,  999.0,  999.0,  999.0,  999.0,  999.0,  999.0,  999.0,  999.0,  999.0
2011/03/14 16:10,    0.1,    0.2,    0.2,    0.2,   -0.2,   -0.1,   -0.1,   -0.5,   -0.7,   -1.4,   -1.5,   -1.6,   -1.6,   -1.4,   -2.4,   -3.1,   -3.5,   -4.0,   -4.3,   -4.2,   -4.4,   -4.2,   -4.5,   -4.9,   -5.0,   -5.4,   -5.3,   -4.5,   -4.0,   -4.0,   -4.7,   -4.8,   -5.6,   -6.5,   -6.6,   -6.7,   -6.8,  999.0,  999.0,  999.0,  999.0,  999.0,  999.0,  999.0,  999.0,  999.0,   -6.8,   -7.0,   -8.1,   -9.4,  999.0,  999.0,  999.0,  999.0,  999.0,  999.0,  999.0,  999.0,  999.0,  999.0,  999.0,  999.0,  999.0,  999.0,  999.0,  999.0,  999.0,  999.0,  999.0,  999.0,  999.0,  999.0,  999.0,  999.0,  999.0,  999.0,  999.0,  999.0,  999.0,  999.0,  999.0,  999.0,  999.0,  999.0,  999.0,  999.0,  999.0,  999.0,  999.0,  999.0,  999.0,  999.0,  999.0,  999.0,  999.0,  999.0,  999.0,  999.0
2011/03/14 16:20,    0.3,    0.5,    0.5,    0.6,    0.6,   -0.5,   -0.5,   -0.3,   -1.0,   -2.1,   -2.6,   -2.5,   -2.7,   -4.5,   -3.6,   -3.7,   -4.5,   -4.8,   -4.6,   -4.6,   -4.2,   -4.4,   -5.1,   -5.8,   -6.3,   -7.5,   -7.4,   -6.0,   -4.8,   -5.5,   -7.0,   -5.7,   -6.4,   -7.0,   -7.6,   -5.9,   -7.1,   -7.7,  999.0,  999.0,  999.0,  999.0,  999.0,  999.0,  999.0,  999.0,   -7.2,   -7.0,   -8.0,   -9.2,  999.0,  999.0,  999.0,  999.0,  999.0,  999.0,  999.0,  999.0,  999.0,  999.0,  999.0,  999.0,  999.0,  999.0,  999.0,  999.0,  999.0,  999.0,  999.0,  999.0,  999.0,  999.0,  999.0,  999.0,  999.0,  999.0,  999.0,  999.0,  999.0,  999.0,  999.0,  999.0,  999.0,  999.0,  999.0,  999.0,  999.0,  999.0,  999.0,  999.0,  999.0,  999.0,  999.0,  999.0,  999.0,  999.0,  999.0,  999.0
2011/03/14 16:30,   -1.8,   -1.6,   -1.9,   -1.0,   -1.2,   -1.3,   -2.7,   -2.7,   -3.0,   -3.2,   -2.8,   -2.7,   -3.1,  999.0,   -4.3,   -4.7,  999.0,   -4.7,   -4.0,   -3.8,   -4.0,   -3.9,   -4.1,   -8.2,  999.0,   -7.1,  999.0,   -3.1,   -4.7,   -5.5,   -3.7,   -3.4,   -3.6,   -4.2,   -4.0,   -3.8,   -4.7,   -5.5,   -7.0,   -6.8,  999.0,  999.0,  999.0,   -6.8,  999.0,  999.0,   -6.8,   -7.3,   -7.3,   -8.9,  999.0,  999.0,  999.0,  999.0,  999.0,  999.0,  999.0,  999.0,  999.0,  999.0,  999.0,  999.0,  999.0,  999.0,  999.0,  999.0,  999.0,  999.0,  999.0,  999.0,  999.0,  999.0,  999.0,  999.0,  999.0,  999.0,  999.0,  999.0,  999.0,  999.0,  999.0,  999.0,  999.0,  999.0,  999.0,  999.0,  999.0,  999.0,  999.0,  999.0,  999.0,  999.0,  999.0,  999.0,  999.0,  999.0,  999.0,  999.0
2011/03/14 16:40,    0.8,    0.7,    0.6,    0.5,   -1.1,   -1.2,   -0.6,   -2.0,   -2.5,   -2.2,   -3.0,  999.0,  999.0,  999.0,  999.0,  999.0,  999.0,  999.0,  999.0,  999.0,  999.0,  999.0,   -1.7,   -3.9,   -3.8,   -4.3,   -4.0,   -3.8,   -3.5,   -5.5,   -5.0,   -5.4,   -5.1,   -5.2,   -5.2,   -4.9,   -4.2,   -4.1,   -4.3,   -4.9,   -6.0,  999.0,  999.0,  999.0,  999.0,  999.0,   -8.4,   -8.7,   -8.6,  999.0,  999.0,  999.0,  999.0,  999.0,  999.0,  999.0,  999.0,  999.0,  999.0,  999.0,  999.0,  999.0,  999.0,  999.0,  999.0,  999.0,  999.0,  999.0,  999.0,  999.0,  999.0,  999.0,  999.0,  999.0,  999.0,  999.0,  999.0,  999.0,  999.0,  999.0,  999.0,  999.0,  999.0,  999.0,  999.0,  999.0,  999.0,  999.0,  999.0,  999.0,  999.0,  999.0,  999.0,  999.0,  999.0,  999.0,  999.0,  999.0
2011/03/14 16:50,    0.1,    0.0,    0.0,    0.0,   -2.0,   -0.9,   -0.2,   -2.2,   -3.0,   -3.7,   -3.6,   -3.8,   -3.6,   -3.3,   -4.4,   -5.2,   -3.8,   -3.8,   -4.7,   -3.8,   -3.6,   -4.0,   -3.6,   -4.2,   -3.3,   -4.2,   -4.7,   -4.9,   -5.1,   -5.5,   -6.1,   -4.1,   -6.5,  999.0,   -9.1,   -8.7,   -8.8,   -9.5,   -8.9,   -9.0,   -9.0,   -8.6,   -8.1,  999.0,   -6.5,   -6.8,   -8.4,   -8.9,   -8.8,  999.0,  999.0,  999.0,  999.0,  999.0,  999.0,  999.0,  999.0,  999.0,  999.0,  999.0,  999.0,  999.0,  999.0,  999.0,  999.0,  999.0,  999.0,  999.0,  999.0,  999.0,  999.0,  999.0,  999.0,  999.0,  999.0,  999.0,  999.0,  999.0,  999.0,  999.0,  999.0,  999.0,  999.0,  999.0,  999.0,  999.0,  999.0,  999.0,  999.0,  999.0,  999.0,  999.0,  999.0,  999.0,  999.0,  999.0,  999.0,  999.0
2011/03/14 17:00,   -0.3,    0.3,    0.1,   -0.6,   -1.3,   -0.3,   -0.3,   -2.2,   -2.8,   -3.2,   -3.6,   -3.7,   -3.6,   -3.6,   -4.3,   -4.9,   -3.9,   -3.8,   -4.3,   -3.5,   -3.0,   -3.3,   -3.6,   -3.5,   -3.0,   -3.5,  999.0,  999.0,  999.0,  999.0,  999.0,  999.0,  999.0,   -1.7,   -1.6,   -3.3,   -4.2,   -5.7,   -4.5,   -4.4,  999.0,   -2.1,   -2.9,   -4.0,   -5.4,   -4.7,  999.0,  999.0,  999.0,  999.0,  999.0,  999.0,  999.0,  999.0,  999.0,  999.0,  999.0,  999.0,  999.0,  999.0,  999.0,  999.0,  999.0,  999.0,  999.0,  999.0,  999.0,  999.0,  999.0,  999.0,  999.0,  999.0,  999.0,  999.0,  999.0,  999.0,  999.0,  999.0,  999.0,  999.0,  999.0,  999.0,  999.0,  999.0,  999.0,  999.0,  999.0,  999.0,  999.0,  999.0,  999.0,  999.0,  999.0,  999.0,  999.0,  999.0,  999.0,  999.0
2011/03/14 17:10,   -0.2,   -0.2,   -0.1,   -1.0,   -1.9,   -0.8,   -0.7,   -2.4,   -2.2,   -3.0,   -3.4,   -3.8,   -3.8,   -4.3,   -4.6,   -4.0,   -3.1,   -3.3,   -4.3,   -4.2,   -3.4,   -3.7,  999.0,   -3.9,   -2.9,   -3.5,   -5.5,  999.0,  999.0,  999.0,  999.0,  999.0,  999.0,  999.0,  999.0,   -5.2,   -6.0,  999.0,  999.0,  999.0,  999.0,  999.0,  999.0,  999.0,  999.0,  999.0,  999.0,  999.0,  999.0,  999.0,  999.0,  999.0,  999.0,  999.0,  999.0,  999.0,  999.0,  999.0,  999.0,  999.0,  999.0,  999.0,  999.0,  999.0,  999.0,  999.0,  999.0,  999.0,  999.0,  999.0,  999.0,  999.0,  999.0,  999.0,  999.0,  999.0,  999.0,  999.0,  999.0,  999.0,  999.0,  999.0,  999.0,  999.0,  999.0,  999.0,  999.0,  999.0,  999.0,  999.0,  999.0,  999.0,  999.0,  999.0,  999.0,  999.0,  999.0,  999.0
2011/03/14 17:20,   -0.1,   -0.1,   -0.0,   -0.9,   -2.2,   -0.9,   -0.7,   -2.2,   -2.7,   -3.4,   -3.3,   -3.7,   -4.0,   -4.4,   -4.4,   -3.8,   -3.2,   -3.0,   -3.5,   -3.7,   -4.1,   -3.5,   -3.5,   -3.7,   -3.0,  999.0,   -3.1,  999.0,   -3.0,  999.0,  999.0,  999.0,   -4.9,   -5.5,  999.0,   -4.9,  999.0,  999.0,  999.0,  999.0,  999.0,  999.0,  999.0,  999.0,  999.0,  999.0,  999.0,  999.0,  999.0,  999.0,  999.0,  999.0,  999.0,  999.0,  999.0,  999.0,  999.0,  999.0,  999.0,  999.0,  999.0,  999.0,  999.0,  999.0,  999.0,  999.0,  999.0,  999.0,  999.0,  999.0,  999.0,  999.0,  999.0,  999.0,  999.0,  999.0,  999.0,  999.0,  999.0,  999.0,  999.0,  999.0,  999.0,  999.0,  999.0,  999.0,  999.0,  999.0,  999.0,  999.0,  999.0,  999.0,  999.0,  999.0,  999.0,  999.0,  999.0,  999.0
2011/03/14 17:30,  999.0,   -0.5,   -0.5,   -2.1,   -2.3,   -1.4,   -2.0,   -2.5,   -2.7,   -2.8,   -2.6,   -3.3,   -4.0,   -4.5,   -5.0,   -4.8,   -4.2,   -3.7,   -3.7,   -3.5,   -3.7,   -3.6,   -3.1,   -3.2,   -3.5,  999.0,  999.0,  999.0,  999.0,  999.0,  999.0,   -4.7,   -5.2,  999.0,   -5.0,   -5.5,  999.0,  999.0,  999.0,  999.0,  999.0,  999.0,  999.0,  999.0,  999.0,  999.0,  999.0,  999.0,  999.0,  999.0,  999.0,  999.0,  999.0,  999.0,  999.0,  999.0,  999.0,  999.0,  999.0,  999.0,  999.0,  999.0,  999.0,  999.0,  999.0,  999.0,  999.0,  999.0,  999.0,  999.0,  999.0,  999.0,  999.0,  999.0,  999.0,  999.0,  999.0,  999.0,  999.0,  999.0,  999.0,  999.0,  999.0,  999.0,  999.0,  999.0,  999.0,  999.0,  999.0,  999.0,  999.0,  999.0,  999.0,  999.0,  999.0,  999.0,  999.0,  999.0
2011/03/14 17:40,   -0.2,   -0.4,   -0.6,   -1.7,   -2.1,   -1.5,   -0.8,   -2.2,  999.0,   -3.5,   -3.3,   -3.5,   -4.6,   -4.8,   -5.2,   -4.5,   -4.1,   -2.8,   -3.5,   -3.3,   -3.0,   -3.1,   -2.9,   -2.8,   -3.5,  999.0,  999.0,  999.0,  999.0,  999.0,   -4.6,   -5.5,   -6.3,   -6.3,   -5.4,  999.0,  999.0,  999.0,  999.0,  999.0,  999.0,  999.0,  999.0,  999.0,  999.0,  999.0,  999.0,  999.0,  999.0,  999.0,  999.0,  999.0,  999.0,  999.0,  999.0,  999.0,  999.0,  999.0,  999.0,  999.0,  999.0,  999.0,  999.0,  999.0,  999.0,  999.0,  999.0,  999.0,  999.0,  999.0,  999.0,  999.0,  999.0,  999.0,  999.0,  999.0,  999.0,  999.0,  999.0,  999.0,  999.0,  999.0,  999.0,  999.0,  999.0,  999.0,  999.0,  999.0,  999.0,  999.0,  999.0,  999.0,  999.0,  999.0,  999.0,  999.0,  999.0,  999.0
2011/03/14 17:50,   -0.3,   -0.3,   -0.1,   -0.7,   -1.3,   -1.0,   -1.0,   -2.1,   -2.5,   -3.3,   -3.3,   -4.1,   -4.9,   -4.7,   -4.9,   -4.8,   -2.8,   -2.4,   -3.0,   -2.6,   -2.4,  999.0,   -2.4,   -3.0,   -3.9,   -4.6,   -5.4,  999.0,  999.0,  999.0,   -4.2,   -5.4,   -6.8,   -6.4,  999.0,  999.0,  999.0,  999.0,  999.0,   -6.0,   -6.5,  999.0,  999.0,  999.0,   -7.7,  999.0,  999.0,  999.0,  999.0,  999.0,  999.0,  999.0,  999.0,  999.0,  999.0,  999.0,  999.0,  999.0,  999.0,  999.0,  999.0,  999.0,  999.0,  999.0,  999.0,  999.0,  999.0,  999.0,  999.0,  999.0,  999.0,  999.0,  999.0,  999.0,  999.0,  999.0,  999.0,  999.0,  999.0,  999.0,  999.0,  999.0,  999.0,  999.0,  999.0,  999.0,  999.0,  999.0,  999.0,  999.0,  999.0,  999.0,  999.0,  999.0,  999.0,  999.0,  999.0,  999.0
2011/03/14 18:00,   -0.3,   -0.1,   -0.1,   -0.3,   -1.7,   -0.8,   -0.1,   -1.8,   -2.0,  999.0,   -3.6,   -4.8,   -5.3,   -4.2,   -4.1,   -3.2,   -1.7,   -2.3,   -2.5,   -2.3,   -2.2,   -2.4,   -2.7,   -3.6,   -4.1,   -4.4,  999.0,   -4.6,   -5.4,  999.0,   -5.1,   -6.1,   -7.8,   -7.5,  999.0,  999.0,   -6.8,  999.0,   -5.6,   -6.4,  999.0,  999.0,  999.0,  999.0,   -7.7,  999.0,   -7.9,  999.0,  999.0,  999.0,  999.0,  999.0,  999.0,  999.0,  999.0,  999.0,  999.0,  999.0,  999.0,  999.0,  999.0,  999.0,  999.0,  999.0,  999.0,  999.0,  999.0,  999.0,  999.0,  999.0,  999.0,  999.0,  999.0,  999.0,  999.0,  999.0,  999.0,  999.0,  999.0,  999.0,  999.0,  999.0,  999.0,  999.0,  999.0,  999.0,  999.0,  999.0,  999.0,  999.0,  999.0,  999.0,  999.0,  999.0,  999.0,  999.0,  999.0,  999.0
2011/03/14 18:10,   -0.7,   -0.2,   -0.2,   -0.3,   -2.9,   -0.8,    0.0,   -0.5,   -3.2,   -4.3,   -4.7,   -5.3,   -5.3,   -4.5,   -3.5,   -2.9,   -1.9,   -1.8,   -2.6,   -2.5,   -3.0,   -2.7,   -2.7,   -3.7,   -4.0,   -4.3,  999.0,   -4.8,   -5.9,   -6.1,  999.0,  999.0,  999.0,  999.0,  999.0,   -6.1,   -6.6,   -6.1,   -5.3,   -6.0,   -6.7,  999.0,  999.0,   -6.5,  999.0,  999.0,  999.0,  999.0,  999.0,  999.0,  999.0,  999.0,  999.0,  999.0,  999.0,  999.0,  999.0,  999.0,  999.0,  999.0,  999.0,  999.0,  999.0,  999.0,  999.0,  999.0,  999.0,  999.0,  999.0,  999.0,  999.0,  999.0,  999.0,  999.0,  999.0,  999.0,  999.0,  999.0,  999.0,  999.0,  999.0,  999.0,  999.0,  999.0,  999.0,  999.0,  999.0,  999.0,  999.0,  999.0,  999.0,  999.0,  999.0,  999.0,  999.0,  999.0,  999.0,  999.0
2011/03/14 18:20,   -0.7,   -0.1,   -0.2,   -0.8,  999.0,   -0.3,  999.0,  999.0,   -4.7,   -4.9,   -5.2,   -4.8,   -4.1,   -3.2,   -3.0,   -2.3,   -1.9,   -1.8,   -2.4,   -2.8,   -3.2,   -2.8,   -2.6,   -3.7,   -3.4,  999.0,   -2.6,  999.0,   -3.7,  999.0,  999.0,  999.0,  999.0,  999.0,  999.0,   -6.0,   -6.5,  999.0,   -5.1,   -5.8,  999.0,   -6.2,   -6.8,  999.0,  999.0,  999.0,  999.0,  999.0,  999.0,  999.0,  999.0,  999.0,  999.0,  999.0,  999.0,  999.0,  999.0,  999.0,  999.0,  999.0,  999.0,  999.0,  999.0,  999.0,  999.0,  999.0,  999.0,  999.0,  999.0,  999.0,  999.0,  999.0,  999.0,  999.0,  999.0,  999.0,  999.0,  999.0,  999.0,  999.0,  999.0,  999.0,  999.0,  999.0,  999.0,  999.0,  999.0,  999.0,  999.0,  999.0,  999.0,  999.0,  999.0,  999.0,  999.0,  999.0,  999.0,  999.0
2011/03/14 18:30,  999.0,  999.0,  999.0,  999.0,  999.0,  999.0,  999.0,   -3.1,   -4.4,   -5.5,   -5.3,   -3.6,   -3.0,   -2.9,   -2.0,   -0.8,   -0.5,   -1.4,   -2.1,   -2.5,   -2.8,   -2.6,   -2.6,   -3.4,   -3.4,  999.0,   -2.2,   -2.3,   -2.6,  999.0,   -5.5,  999.0,  999.0,  999.0,  999.0,   -6.3,   -6.3,   -6.0,   -4.9,   -5.5,  999.0,  999.0,  999.0,  999.0,  999.0,  999.0,  999.0,  999.0,  999.0,  999.0,  999.0,  999.0,  999.0,  999.0,  999.0,  999.0,  999.0,  999.0,  999.0,  999.0,  999.0,  999.0,  999.0,  999.0,  999.0,  999.0,  999.0,  999.0,  999.0,  999.0,  999.0,  999.0,  999.0,  999.0,  999.0,  999.0,  999.0,  999.0,  999.0,  999.0,  999.0,  999.0,  999.0,  999.0,  999.0,  999.0,  999.0,  999.0,  999.0,  999.0,  999.0,  999.0,  999.0,  999.0,  999.0,  999.0,  999.0,  999.0
2011/03/14 18:40,  999.0,  999.0,  999.0,  999.0,  999.0,  999.0,  999.0,   -3.2,  999.0,  999.0,   -3.7,   -2.8,   -2.8,   -2.3,   -1.1,   -0.3,   -0.7,   -1.0,   -1.6,   -2.7,   -3.2,   -2.9,   -3.5,   -3.5,   -3.4,  999.0,  999.0,  999.0,  999.0,  999.0,   -6.2,   -7.2,   -7.4,  999.0,  999.0,   -6.6,  999.0,  999.0,   -5.6,   -6.3,  999.0,  999.0,  999.0,  999.0,  999.0,  999.0,  999.0,  999.0,  999.0,  999.0,  999.0,  999.0,  999.0,  999.0,  999.0,  999.0,  999.0,  999.0,  999.0,  999.0,  999.0,  999.0,  999.0,  999.0,  999.0,  999.0,  999.0,  999.0,  999.0,  999.0,  999.0,  999.0,  999.0,  999.0,  999.0,  999.0,  999.0,  999.0,  999.0,  999.0,  999.0,  999.0,  999.0,  999.0,  999.0,  999.0,  999.0,  999.0,  999.0,  999.0,  999.0,  999.0,  999.0,  999.0,  999.0,  999.0,  999.0,  999.0
2011/03/14 18:50,  999.0,  999.0,  999.0,   -2.0,   -3.7,   -2.2,  999.0,  999.0,   -4.3,   -5.3,   -3.7,   -2.6,   -2.8,   -2.9,   -1.5,   -0.6,   -0.6,   -1.0,   -1.1,   -2.2,   -3.6,   -3.7,   -3.3,   -3.5,   -3.5,  999.0,  999.0,  999.0,  999.0,  999.0,   -6.3,   -7.4,   -7.9,   -7.7,   -6.9,   -6.6,   -5.8,   -5.4,  999.0,  999.0,  999.0,  999.0,  999.0,  999.0,  999.0,  999.0,  999.0,  999.0,  999.0,  999.0,  999.0,  999.0,  999.0,  999.0,  999.0,  999.0,  999.0,  999.0,  999.0,  999.0,  999.0,  999.0,  999.0,  999.0,  999.0,  999.0,  999.0,  999.0,  999.0,  999.0,  999.0,  999.0,  999.0,  999.0,  999.0,  999.0,  999.0,  999.0,  999.0,  999.0,  999.0,  999.0,  999.0,  999.0,  999.0,  999.0,  999.0,  999.0,  999.0,  999.0,  999.0,  999.0,  999.0,  999.0,  999.0,  999.0,  999.0,  999.0
2011/03/14 19:00,  999.0,   -0.2,   -0.2,   -2.6,  999.0,   -1.6,    0.1,   -1.9,  999.0,  999.0,   -2.5,   -1.6,   -1.8,   -2.0,   -1.5,   -0.7,  999.0,   -0.4,   -1.3,   -3.2,   -4.0,   -3.5,   -3.4,   -3.6,  999.0,  999.0,  999.0,  999.0,  999.0,   -5.1,   -6.1,   -7.0,   -7.5,   -7.6,   -6.7,   -6.5,   -6.3,  999.0,  999.0,  999.0,  999.0,  999.0,  999.0,  999.0,  999.0,  999.0,  999.0,  999.0,  999.0,  999.0,  999.0,  999.0,  999.0,  999.0,  999.0,  999.0,  999.0,  999.0,  999.0,  999.0,  999.0,  999.0,  999.0,  999.0,  999.0,  999.0,  999.0,  999.0,  999.0,  999.0,  999.0,  999.0,  999.0,  999.0,  999.0,  999.0,  999.0,  999.0,  999.0,  999.0,  999.0,  999.0,  999.0,  999.0,  999.0,  999.0,  999.0,  999.0,  999.0,  999.0,  999.0,  999.0,  999.0,  999.0,  999.0,  999.0,  999.0,  999.0
2011/03/14 19:10,   -0.0,  999.0,  999.0,  999.0,  999.0,    0.1,    0.1,  999.0,  999.0,   -3.2,   -1.2,   -1.5,   -1.4,   -1.2,   -0.7,    0.1,   -0.2,   -0.4,   -1.8,   -3.3,   -3.6,   -3.6,   -3.3,   -3.7,  999.0,  999.0,   -4.1,  999.0,  999.0,   -5.3,   -6.6,   -6.0,   -6.7,   -7.6,   -7.1,  999.0,   -5.9,   -6.9,  999.0,  999.0,  999.0,  999.0,  999.0,  999.0,  999.0,  999.0,  999.0,  999.0,  999.0,  999.0,  999.0,  999.0,  999.0,  999.0,  999.0,  999.0,  999.0,  999.0,  999.0,  999.0,  999.0,  999.0,  999.0,  999.0,  999.0,  999.0,  999.0,  999.0,  999.0,  999.0,  999.0,  999.0,  999.0,  999.0,  999.0,  999.0,  999.0,  999.0,  999.0,  999.0,  999.0,  999.0,  999.0,  999.0,  999.0,  999.0,  999.0,  999.0,  999.0,  999.0,  999.0,  999.0,  999.0,  999.0,  999.0,  999.0,  999.0,  999.0
2011/03/14 19:20,   -0.1,   -0.3,   -0.3,    0.2,  999.0,   -0.3,  999.0,  999.0,   -3.5,   -2.9,   -1.2,   -1.3,   -1.5,   -0.8,   -0.6,   -1.1,   -0.9,   -1.2,   -2.7,   -4.0,   -3.8,   -3.8,   -3.6,   -3.9,   -4.6,   -4.8,   -4.7,  999.0,  999.0,   -6.7,   -6.1,   -5.9,   -6.7,   -7.4,   -7.8,   -7.4,   -6.8,   -6.9,  999.0,  999.0,  999.0,  999.0,  999.0,  999.0,  999.0,  999.0,  999.0,  999.0,  999.0,  999.0,  999.0,  999.0,  999.0,  999.0,  999.0,  999.0,  999.0,  999.0,  999.0,  999.0,  999.0,  999.0,  999.0,  999.0,  999.0,  999.0,  999.0,  999.0,  999.0,  999.0,  999.0,  999.0,  999.0,  999.0,  999.0,  999.0,  999.0,  999.0,  999.0,  999.0,  999.0,  999.0,  999.0,  999.0,  999.0,  999.0,  999.0,  999.0,  999.0,  999.0,  999.0,  999.0,  999.0,  999.0,  999.0,  999.0,  999.0,  999.0
2011/03/14 19:30,   -0.4,  999.0,  999.0,  999.0,  999.0,   -0.1,  999.0,  999.0,   -3.1,   -2.3,   -1.7,   -1.6,   -1.6,   -1.4,   -1.3,   -1.3,   -1.0,   -1.6,   -2.2,   -3.3,   -3.2,   -2.8,   -2.8,   -3.3,   -3.9,   -4.5,  999.0,  999.0,   -4.8,   -5.2,   -5.3,   -6.1,   -5.5,   -6.1,   -7.3,   -7.4,   -7.1,   -7.1,   -6.9,  999.0,  999.0,  999.0,  999.0,  999.0,  999.0,  999.0,  999.0,  999.0,  999.0,  999.0,  999.0,  999.0,  999.0,  999.0,  999.0,  999.0,  999.0,  999.0,  999.0,  999.0,  999.0,  999.0,  999.0,  999.0,  999.0,  999.0,  999.0,  999.0,  999.0,  999.0,  999.0,  999.0,  999.0,  999.0,  999.0,  999.0,  999.0,  999.0,  999.0,  999.0,  999.0,  999.0,  999.0,  999.0,  999.0,  999.0,  999.0,  999.0,  999.0,  999.0,  999.0,  999.0,  999.0,  999.0,  999.0,  999.0,  999.0,  999.0
2011/03/14 19:40,  999.0,  999.0,  999.0,  999.0,  999.0,  999.0,  999.0,   -4.0,   -3.6,   -3.1,   -2.1,   -1.9,   -1.7,   -1.3,   -1.4,   -1.8,   -1.5,   -1.5,   -1.7,   -2.7,   -2.8,   -2.6,   -2.8,   -3.2,   -3.7,   -5.2,   -4.4,   -4.2,   -4.6,   -5.0,   -5.6,   -6.2,   -5.5,   -5.3,   -6.7,   -7.8,   -6.7,   -6.3,   -6.4,   -6.7,  999.0,  999.0,  999.0,  999.0,  999.0,  999.0,  999.0,   -7.0,   -6.3,   -6.5,   -6.8,   -6.9,   -7.4,   -8.2,   -9.0,  999.0,  999.0,  999.0,  999.0,  999.0,  999.0,  999.0,  999.0,  999.0,  999.0,  999.0,  999.0,   -7.6,   -9.0,   -9.2,   -9.2,   -9.3,   -9.3,   -9.5,   -9.4,  999.0,  999.0,  999.0,  999.0,  999.0,  999.0,  999.0,  999.0,  999.0,  999.0,  999.0,  999.0,  999.0,  999.0,  999.0,  999.0,  999.0,  999.0,  999.0,  999.0,  999.0,  999.0,  999.0
2011/03/14 19:50,   -0.2,   -0.7,   -0.9,  999.0,  999.0,  999.0,   -2.5,   -4.5,   -4.3,   -3.3,   -3.2,   -2.9,   -1.8,   -1.2,   -1.5,   -2.0,   -2.4,   -1.9,   -1.9,   -3.0,   -2.5,   -2.2,   -2.5,   -3.9,   -5.2,   -6.1,   -5.9,   -5.3,   -5.1,   -5.5,   -5.1,   -5.9,   -6.4,   -5.7,   -5.7,   -6.5,   -6.2,  999.0,   -5.6,  999.0,  999.0,  999.0,  999.0,  999.0,  999.0,  999.0,  999.0,  999.0,  999.0,  999.0,   -5.2,   -5.7,   -6.5,   -6.8,   -7.7,   -8.4,   -8.5,   -7.9,   -8.3,   -7.1,   -7.6,   -6.0,   -5.4,   -5.6,   -6.0,   -5.9,   -6.0,   -6.7,   -7.6,  999.0,  999.0,  999.0,  999.0,  999.0,  999.0,  999.0,  999.0,  999.0,  999.0,  999.0,  999.0,  999.0,  999.0,  999.0,  999.0,  999.0,  999.0,  999.0,  999.0,  999.0,  999.0,  999.0,  999.0,  999.0,  999.0,  999.0,  999.0,  999.0
2011/03/14 20:00,   -0.1,   -0.3,   -0.8,  999.0,  999.0,  999.0,  999.0,  999.0,    0.8,    3.6,    4.2,    6.3,    8.7,    7.3,    4.6,    5.8,    7.4,    6.2,    4.2,    6.3,    4.4,  999.0,    2.5,  999.0,  999.0,  999.0,  999.0,  999.0,   -4.4,   -4.0,   -4.6,   -3.6,   -3.7,   -3.7,  999.0,   -7.1,  999.0,  999.0,  999.0,   -4.0,   -3.8,   -4.9,   -4.8,  999.0,  999.0,   -5.3,  999.0,   -6.9,   -5.9,   -5.9,   -6.8,   -8.0,   -8.7,   -9.3,   -9.5,   -9.5,   -9.3,   -8.6,   -7.7,   -7.4,   -7.8,   -7.6,   -7.0,   -6.7,   -6.8,   -6.3,   -6.4,   -7.3,   -7.9,   -7.7,   -7.5,   -7.8,  999.0,  999.0,  999.0,  999.0,  999.0,  999.0,  999.0,  999.0,  999.0,  999.0,  999.0,  999.0,  999.0,  999.0,  999.0,  999.0,  999.0,  999.0,  999.0,  999.0,  999.0,  999.0,  999.0,  999.0,  999.0,  999.0
2011/03/14 20:10,  999.0,  999.0,   -3.7,   -5.0,  999.0,  999.0,   -3.9,   -3.9,   -3.0,   -3.2,   -3.2,   -2.1,   -5.4,   -2.7,   -7.1,   -7.5,   -6.2,   -5.6,   -5.5,   -5.0,   -5.2,   -6.5,   -8.0,   -5.1,  -10.5,   -6.4,  999.0,   -7.9,  -10.5,   -9.8,  999.0,   -9.1,   -9.5,  999.0,  999.0,  999.0,  999.0,   -6.8,   -9.2,  999.0,   -7.4,   -7.8,   -7.8,   -7.0,   -7.9,  999.0,  999.0,  999.0,  999.0,   -6.8,   -8.0,   -9.2,   -9.6,  -10.0,  -10.3,  -10.3,   -9.3,   -8.2,   -7.6,   -7.4,   -7.4,   -7.5,   -7.3,   -7.0,   -6.9,   -6.5,   -6.0,   -6.5,   -6.9,   -6.8,   -6.7,   -7.0,   -7.5,   -7.7,   -7.5,   -7.6,   -7.6,   -7.4,   -7.5,   -7.4,  999.0,  999.0,  999.0,  999.0,  999.0,  999.0,  999.0,  999.0,  999.0,  999.0,  999.0,  999.0,  999.0,  999.0,  999.0,  999.0,  999.0,  999.0
2011/03/14 20:20,   -2.6,   -3.8,   -4.4,   -3.8,   -3.1,   -2.7,   -3.3,   -2.9,   -2.9,   -2.7,   -2.3,   -2.7,   -2.4,   -2.8,   -2.8,   -2.8,   -2.3,   -1.9,   -0.4,   -0.3,   -1.0,   -0.7,   -3.5,   -2.8,   -3.1,   -3.0,   -3.2,   -2.6,   -2.1,   -2.3,   -3.5,   -4.4,   -4.6,   -4.3,   -3.5,   -2.9,   -1.2,   -0.2,   -1.9,   -0.1,   -2.0,   -1.7,   -1.9,   -3.0,  999.0,  999.0,  999.0,  999.0,   -6.8,   -6.4,   -7.4,   -8.0,   -8.4,   -9.1,   -9.4,   -9.1,   -8.5,   -7.9,   -7.1,   -7.0,   -7.0,   -7.0,   -7.3,   -7.3,   -7.3,   -7.4,   -7.3,   -7.1,   -7.0,   -6.8,   -6.9,   -6.8,   -6.9,   -7.7,  999.0,  999.0,  999.0,  999.0,  999.0,  999.0,  999.0,  999.0,  999.0,  999.0,  999.0,  999.0,  999.0,  999.0,  999.0,  999.0,  999.0,  999.0,  999.0,  999.0,  999.0,  999.0,  999.0,  999.0
2011/03/14 20:30,   -1.7,   -2.7,   -3.2,   -4.0,   -4.0,   -3.6,   -4.5,   -4.3,   -3.2,   -2.8,   -2.1,   -2.1,   -1.1,   -1.2,   -1.2,   -0.9,   -1.0,    0.4,    1.0,    0.2,   -0.6,   -1.4,   -2.9,   -4.0,   -4.0,   -4.5,   -4.2,   -4.7,   -4.8,   -5.7,   -6.7,   -7.4,   -7.8,   -7.1,   -6.4,   -6.1,   -5.8,   -5.6,   -5.1,   -4.9,   -4.7,   -4.4,   -5.1,   -5.3,   -5.6,   -3.7,  999.0,  999.0,   -6.7,   -6.9,   -7.6,   -8.3,   -8.8,   -8.7,   -8.4,   -8.5,   -8.4,   -8.0,   -7.5,   -7.5,   -7.6,   -7.2,   -7.3,   -7.3,   -7.6,   -8.2,   -8.5,   -8.6,   -8.8,   -8.5,   -8.4,  999.0,  999.0,   -7.6,   -7.6,  999.0,  999.0,  999.0,  999.0,  999.0,  999.0,  999.0,  999.0,  999.0,  999.0,  999.0,  999.0,  999.0,  999.0,  999.0,  999.0,  999.0,  999.0,  999.0,  999.0,  999.0,  999.0,  999.0
2011/03/14 20:40,  999.0,  999.0,   -2.9,   -2.9,   -2.7,   -4.1,   -4.5,   -3.9,   -4.6,   -3.9,  999.0,  999.0,  999.0,   -1.5,   -1.7,   -1.5,   -1.7,   -0.6,   -0.4,   -2.0,   -2.2,   -2.7,   -3.7,   -4.3,   -4.2,   -3.9,   -3.7,   -3.3,   -3.5,   -4.9,   -5.4,   -6.5,   -6.3,   -5.8,   -5.3,   -5.1,   -5.4,   -5.3,   -5.7,   -4.7,   -4.5,   -4.4,   -5.5,   -6.5,  999.0,   -5.1,  999.0,  999.0,   -7.2,   -7.8,   -8.3,   -8.5,   -8.5,   -8.2,   -8.2,   -8.1,   -7.8,   -7.7,   -7.5,   -7.4,   -7.9,   -7.8,   -7.6,   -7.7,   -7.8,   -8.1,   -8.2,   -8.2,   -7.6,   -7.7,   -7.2,   -7.2,  999.0,   -6.9,   -6.2,   -6.3,   -6.8,  999.0,   -7.3,  999.0,  999.0,  999.0,  999.0,  999.0,  999.0,  999.0,  999.0,  999.0,  999.0,  999.0,  999.0,  999.0,  999.0,  999.0,  999.0,  999.0,  999.0,  999.0
2011/03/14 20:50,  999.0,   -2.9,   -3.7,  999.0,   -3.9,   -3.9,   -4.8,   -5.3,   -5.4,   -4.8,   -3.8,   -3.2,   -2.6,   -2.1,  999.0,   -3.2,   -2.5,   -1.8,   -1.4,   -2.4,   -1.9,   -2.4,  999.0,  999.0,  999.0,  999.0,   -1.4,    0.2,   -1.1,   -4.5,   -5.0,   -5.2,   -5.8,   -5.9,   -5.6,   -5.5,   -5.2,   -5.2,   -5.0,   -4.8,   -4.4,   -4.3,   -5.4,   -6.4,   -6.7,   -5.6,   -6.3,  999.0,   -7.5,   -7.4,   -7.8,   -7.9,   -7.9,   -7.9,   -7.6,   -7.2,   -7.2,   -7.3,   -7.6,   -7.3,   -7.6,   -7.8,   -7.8,   -7.9,   -8.3,   -8.1,   -7.9,   -7.5,   -7.3,   -6.8,   -6.9,   -6.9,   -6.9,   -7.1,   -7.3,   -7.6,   -8.0,   -8.1,   -8.0,  999.0,  999.0,  999.0,  999.0,  999.0,  999.0,  999.0,  999.0,  999.0,  999.0,  999.0,  999.0,  999.0,  999.0,  999.0,  999.0,  999.0,  999.0,  999.0
2011/03/14 21:00,   -1.8,   -2.3,   -3.2,  999.0,   -3.6,   -3.7,   -4.6,   -5.7,   -6.0,   -4.3,   -3.6,   -3.3,   -3.0,  999.0,   -3.1,   -3.1,   -1.9,   -1.7,   -2.6,  999.0,  999.0,  999.0,  999.0,  999.0,  999.0,  999.0,  999.0,  999.0,  999.0,  999.0,  999.0,  999.0,  999.0,  999.0,   -6.1,   -6.3,   -5.6,   -5.2,   -4.9,   -4.5,   -4.0,   -4.6,   -6.1,   -7.2,   -7.8,   -6.9,   -7.0,   -7.9,   -7.3,   -7.1,   -7.3,   -7.8,   -8.1,   -7.8,   -7.6,   -7.3,   -7.4,   -7.6,   -7.6,   -7.4,   -7.2,   -7.4,   -7.4,   -7.4,   -7.5,   -7.6,   -7.5,   -7.2,   -7.0,   -6.6,   -6.7,   -6.5,   -6.4,   -6.7,   -7.5,   -8.2,  999.0,  999.0,  999.0,  999.0,  999.0,  999.0,  999.0,  999.0,  999.0,  999.0,  999.0,  999.0,  999.0,  999.0,  999.0,  999.0,  999.0,  999.0,  999.0,  999.0,  999.0,  999.0
2011/03/14 21:10,   -1.4,   -2.4,   -2.9,   -4.1,   -3.7,   -3.6,   -4.9,   -5.8,   -6.2,   -5.8,   -5.0,   -3.9,   -3.7,   -3.1,   -3.5,   -3.1,   -2.4,   -3.1,   -3.8,   -4.0,   -2.6,   -2.2,   -2.9,   -2.9,   -2.5,   -2.9,   -2.6,   -2.6,  999.0,  999.0,  999.0,  999.0,  999.0,  999.0,  999.0,  999.0,  999.0,   -5.5,   -5.3,   -5.1,   -4.7,   -4.2,   -5.3,   -6.6,   -7.1,   -6.7,   -6.9,   -8.5,   -8.1,   -7.4,   -6.9,   -7.9,   -8.3,   -8.1,   -7.8,   -7.6,   -8.0,   -7.8,   -7.9,   -7.7,  999.0,  999.0,  999.0,  999.0,   -7.9,  999.0,   -7.1,   -7.3,   -6.8,   -6.6,   -6.6,   -6.4,   -6.3,   -6.9,  999.0,  999.0,  999.0,  999.0,  999.0,  999.0,  999.0,  999.0,  999.0,  999.0,  999.0,  999.0,  999.0,  999.0,  999.0,  999.0,  999.0,  999.0,  999.0,  999.0,  999.0,  999.0,  999.0,  999.0
2011/03/14 21:20,   -0.9,   -1.9,   -2.8,   -3.8,   -3.4,   -3.8,   -4.9,   -5.8,   -6.2,   -5.6,   -5.2,   -4.4,   -4.0,   -3.7,   -3.8,   -3.6,   -3.7,   -3.8,   -4.1,   -4.0,   -3.1,   -2.4,   -2.3,   -2.9,   -2.0,   -1.7,   -1.4,   -1.7,   -2.3,   -3.0,   -3.2,   -3.7,  999.0,   -0.6,  999.0,  999.0,   -4.9,   -4.3,   -4.3,   -4.4,   -3.9,   -3.7,   -4.3,   -5.6,   -6.7,  999.0,   -6.1,   -7.4,   -7.6,  999.0,   -7.6,  999.0,  999.0,  999.0,  999.0,  999.0,   -8.0,   -8.4,   -8.4,   -7.6,   -7.5,   -8.2,   -8.4,   -8.0,   -7.8,   -7.5,   -7.4,   -7.2,   -7.2,   -6.9,   -6.6,   -6.6,   -6.7,   -7.2,   -7.5,  999.0,  999.0,  999.0,  999.0,  999.0,  999.0,  999.0,  999.0,  999.0,  999.0,  999.0,  999.0,  999.0,  999.0,  999.0,  999.0,  999.0,  999.0,  999.0,  999.0,  999.0,  999.0,  999.0
2011/03/14 21:30,   -1.2,   -1.5,   -2.4,   -3.6,   -3.0,   -2.7,   -4.2,   -5.2,   -6.4,   -6.7,   -5.6,   -4.9,   -4.4,   -4.0,   -3.7,   -3.8,   -3.9,   -4.6,   -5.0,   -3.7,   -3.0,   -2.4,   -2.2,   -1.8,   -1.2,   -1.1,   -1.2,   -1.1,   -2.0,   -2.6,   -3.0,   -3.3,   -4.1,   -5.4,   -6.1,  999.0,  999.0,  999.0,  999.0,  999.0,  999.0,  999.0,  999.0,  999.0,  999.0,  999.0,  999.0,  999.0,  999.0,  999.0,  999.0,   -8.0,   -8.6,   -8.7,   -8.5,   -9.0,   -8.6,   -9.0,   -8.5,   -8.4,   -7.9,   -8.1,   -8.2,   -7.7,   -7.5,   -7.7,   -7.9,   -7.6,   -6.9,   -6.2,   -5.9,   -6.4,   -6.6,   -6.5,   -6.5,   -6.3,   -6.1,   -6.3,   -6.6,   -7.0,   -7.6,  999.0,  999.0,   -7.0,  999.0,  999.0,  999.0,  999.0,  999.0,  999.0,  999.0,  999.0,  999.0,  999.0,  999.0,  999.0,  999.0,  999.0
2011/03/14 21:40,   -1.3,   -1.7,   -2.5,   -3.5,  999.0,  999.0,   -3.7,   -5.4,   -6.1,  999.0,   -6.2,   -5.4,   -4.6,   -4.7,   -4.0,   -3.7,   -3.4,   -3.7,   -4.1,   -3.5,   -2.6,   -2.4,   -1.6,   -1.2,   -0.4,   -0.5,   -1.0,   -1.2,   -2.3,  999.0,   -2.6,   -3.1,   -4.3,   -5.4,   -5.9,   -6.4,   -6.8,  999.0,  999.0,  999.0,  999.0,  999.0,  999.0,  999.0,  999.0,  999.0,   -7.6,   -8.5,   -8.8,   -8.9,  999.0,  999.0,   -8.8,  999.0,  999.0,  999.0,  999.0,  999.0,  999.0,  999.0,   -7.9,  999.0,  999.0,  999.0,   -7.4,   -7.6,   -7.8,   -7.7,   -7.1,   -6.4,   -5.7,   -5.8,   -6.2,   -6.3,   -6.5,   -6.4,   -6.1,   -6.3,   -6.6,   -7.1,   -7.5,   -7.5,   -7.0,   -6.8,   -7.1,   -7.1,   -6.3,   -6.4,   -7.1,   -7.7,  999.0,  999.0,  999.0,  999.0,  999.0,  999.0,  999.0,  999.0
2011/03/14 21:50,   -0.6,   -0.7,   -2.4,  999.0,  999.0,  999.0,  999.0,   -5.0,   -5.3,  999.0,   -6.1,   -5.9,   -5.2,   -4.2,   -3.2,   -3.5,   -3.0,   -3.1,   -3.0,   -3.3,   -2.1,   -1.6,   -1.2,   -1.5,   -0.3,   -0.9,   -0.5,   -1.1,   -1.7,   -2.5,   -2.9,   -3.5,   -4.4,   -5.3,   -5.5,   -6.0,  999.0,  999.0,  999.0,  999.0,   -5.7,   -5.4,   -5.5,   -6.0,   -6.7,   -7.0,   -7.8,   -8.8,   -8.9,   -8.7,   -8.8,   -9.7,  999.0,  999.0,  999.0,  999.0,  999.0,  999.0,  999.0,  999.0,  999.0,   -8.3,   -8.2,   -7.8,   -7.9,   -7.9,   -7.9,   -7.7,   -7.1,   -6.2,   -5.7,   -5.9,   -6.2,   -6.5,   -6.5,   -6.4,   -6.2,   -6.2,   -6.4,   -6.8,   -7.1,   -6.7,   -6.7,   -7.0,   -6.9,   -6.5,   -6.1,   -6.2,   -6.6,  999.0,  999.0,  999.0,  999.0,  999.0,  999.0,  999.0,  999.0,  999.0
2011/03/14 22:00,   -0.5,   -1.2,   -2.4,   -3.5,   -3.9,   -2.1,   -3.7,   -5.0,   -5.7,  999.0,   -6.4,   -6.1,   -5.3,   -4.1,   -3.2,   -3.2,   -3.0,   -2.6,   -2.3,   -2.7,   -1.5,   -1.1,   -0.5,   -0.3,   -0.8,   -1.0,  999.0,   -2.4,   -2.3,   -2.6,   -3.0,   -3.8,  999.0,   -5.0,   -5.7,   -5.7,   -5.7,   -5.7,  999.0,  999.0,  999.0,  999.0,  999.0,  999.0,   -7.0,   -7.4,   -7.5,   -8.4,  999.0,   -8.7,  999.0,  999.0,  999.0,  999.0,  999.0,  999.0,  999.0,  999.0,  999.0,   -7.7,   -7.5,   -7.4,   -7.9,   -7.7,   -7.5,   -7.7,   -7.5,   -7.2,   -6.8,   -6.1,   -5.6,   -5.7,   -5.9,   -6.4,   -6.5,   -6.3,   -6.0,   -6.3,   -6.7,   -6.8,   -6.7,   -6.6,   -6.8,   -7.1,  999.0,  999.0,  999.0,  999.0,  999.0,  999.0,  999.0,  999.0,  999.0,  999.0,  999.0,  999.0,  999.0,  999.0
2011/03/14 22:10,   -1.5,   -2.0,   -2.4,   -3.3,   -4.1,   -3.0,   -3.1,  999.0,   -6.1,   -6.6,   -6.4,   -6.2,   -5.4,   -4.6,   -3.6,   -3.7,   -3.0,   -2.2,   -2.4,   -2.4,   -2.3,   -1.9,   -1.5,   -2.0,   -2.8,   -2.2,   -1.4,   -1.5,   -1.5,   -1.3,   -2.5,   -3.1,   -3.8,   -4.6,   -5.0,   -5.6,   -5.8,   -5.7,   -6.2,   -6.1,  999.0,  999.0,  999.0,  999.0,  999.0,  999.0,  999.0,  999.0,  999.0,  999.0,  999.0,  999.0,  999.0,  999.0,  999.0,  999.0,  999.0,   -8.6,   -8.8,   -8.2,   -7.6,   -7.8,   -8.4,   -7.1,   -6.9,   -7.1,   -7.1,   -6.9,   -6.7,   -6.4,   -5.9,   -5.7,   -5.8,   -6.1,   -6.5,   -6.6,   -6.3,   -6.2,   -6.2,   -6.5,   -6.1,   -6.6,   -6.4,   -6.3,   -6.0,   -6.4,   -6.7,   -7.0,   -7.0,  999.0,  999.0,  999.0,  999.0,  999.0,  999.0,  999.0,  999.0,  999.0
2011/03/14 22:20,   -2.3,   -1.3,   -2.3,   -3.3,   -3.8,   -3.7,   -3.3,  999.0,   -6.4,   -6.3,   -6.4,   -5.9,   -5.2,   -4.7,   -3.9,   -3.7,   -2.5,   -1.9,   -1.9,   -1.7,   -1.9,   -1.8,   -1.9,   -2.0,   -2.3,   -1.9,   -2.1,   -1.7,   -1.3,   -1.5,   -2.0,   -2.7,   -3.4,   -3.8,  999.0,  999.0,   -4.9,   -5.1,   -5.4,   -6.1,  999.0,  999.0,  999.0,  999.0,  999.0,  999.0,  999.0,  999.0,  999.0,  999.0,  999.0,  999.0,  999.0,  999.0,  999.0,  999.0,  999.0,  999.0,  999.0,  999.0,  999.0,  999.0,  999.0,  999.0,   -6.6,   -6.7,   -6.8,   -6.5,   -6.4,   -6.3,   -5.9,   -5.3,   -5.2,   -5.6,   -6.1,   -6.2,   -6.1,   -6.0,   -6.0,   -6.2,   -6.4,   -6.2,   -6.3,   -6.2,   -6.4,   -6.4,  999.0,  999.0,  999.0,  999.0,  999.0,  999.0,  999.0,  999.0,  999.0,  999.0,  999.0,  999.0
2011/03/14 22:30,   -2.2,   -1.0,   -2.1,   -3.0,   -3.6,   -3.4,   -3.3,  999.0,   -6.5,   -6.0,   -5.7,   -5.3,   -5.2,   -4.0,   -3.7,   -3.1,   -1.7,   -1.9,   -1.7,   -1.4,   -1.7,   -1.7,   -2.2,   -2.8,   -1.4,   -1.4,   -1.5,   -1.4,   -1.1,  999.0,   -1.6,   -2.5,   -3.4,   -4.0,   -4.6,  999.0,  999.0,  999.0,   -5.5,   -6.0,  999.0,  999.0,  999.0,  999.0,  999.0,  999.0,  999.0,  999.0,  999.0,  999.0,  999.0,  999.0,  999.0,  999.0,  999.0,  999.0,  999.0,  999.0,  999.0,  999.0,  999.0,  999.0,  999.0,  999.0,   -7.5,   -6.7,   -6.4,   -5.9,   -5.8,   -5.8,   -5.9,   -5.3,   -4.9,   -5.2,   -6.0,   -5.9,   -5.9,   -5.9,   -5.9,   -6.2,   -6.3,   -6.1,   -5.9,   -6.1,   -6.4,   -6.8,   -7.1,   -7.0,   -7.7,   -7.9,   -7.7,  999.0,   -7.9,  999.0,  999.0,  999.0,  999.0,  999.0
2011/03/14 22:40,   -0.3,   -0.6,   -1.7,   -3.3,   -4.1,  999.0,   -3.1,   -4.9,   -6.0,   -6.0,   -5.5,   -4.9,   -5.0,   -3.8,   -3.6,   -2.6,   -1.7,   -1.6,   -1.7,   -1.6,   -1.7,   -1.6,   -2.2,   -2.0,   -1.4,   -0.9,   -0.7,   -0.8,   -1.1,  999.0,   -1.0,   -2.0,   -3.0,   -3.9,   -4.3,   -4.6,  999.0,   -5.8,   -5.9,  999.0,  999.0,  999.0,  999.0,  999.0,  999.0,  999.0,  999.0,  999.0,  999.0,  999.0,  999.0,  999.0,  999.0,  999.0,  999.0,  999.0,  999.0,  999.0,  999.0,  999.0,   -9.2,   -9.2,   -9.3,   -9.3,   -8.5,   -6.8,   -6.4,   -6.1,   -6.1,   -5.9,   -5.9,   -5.2,   -4.8,   -5.4,   -6.1,   -6.1,   -6.0,   -6.1,   -6.1,   -6.0,   -6.3,   -6.1,   -6.1,   -6.3,   -6.7,   -7.3,   -7.8,   -7.8,   -8.0,   -8.1,   -8.0,   -7.7,   -8.0,   -7.9,   -7.7,  999.0,  999.0,  999.0
2011/03/14 22:50,   -0.1,   -0.6,   -2.2,   -3.5,   -3.9,   -2.0,   -1.9,   -3.4,   -5.5,  999.0,  999.0,   -4.9,   -4.8,   -3.8,   -3.4,   -2.5,   -1.8,   -2.2,   -2.0,   -1.7,   -1.7,   -1.9,   -2.3,   -2.5,   -2.5,   -2.4,   -1.2,   -1.3,   -0.9,   -1.6,   -1.8,   -2.5,   -3.0,   -4.0,   -4.4,  999.0,  999.0,   -5.4,   -6.1,  999.0,  999.0,  999.0,  999.0,  999.0,  999.0,  999.0,  999.0,  999.0,  999.0,  999.0,  999.0,  999.0,  999.0,  999.0,  999.0,  999.0,  999.0,  999.0,  999.0,  999.0,  999.0,  999.0,   -8.7,   -8.6,   -7.2,   -6.0,   -5.7,   -5.6,   -5.6,   -5.5,   -5.3,   -5.1,   -4.7,   -5.1,   -5.9,   -6.3,   -6.6,   -6.7,   -6.6,   -6.5,   -6.7,   -6.9,   -7.2,   -7.3,   -7.3,   -7.5,   -8.1,   -8.5,   -8.6,   -8.7,  999.0,  999.0,  999.0,  999.0,  999.0,  999.0,  999.0,  999.0
2011/03/14 23:00,   -0.1,   -0.8,   -2.1,   -3.4,   -3.6,   -1.7,  999.0,   -3.7,   -5.3,  999.0,   -4.9,   -4.8,   -4.6,   -3.4,   -3.3,   -2.2,   -2.2,   -2.0,   -1.7,   -2.0,   -2.0,   -2.3,   -2.6,   -3.1,   -3.3,   -2.7,   -2.2,   -1.8,   -2.0,   -1.9,   -1.6,   -2.4,   -3.3,   -3.9,  999.0,  999.0,   -5.1,   -6.0,   -6.0,  999.0,  999.0,  999.0,  999.0,  999.0,  999.0,  999.0,  999.0,  999.0,  999.0,  999.0,  999.0,  999.0,  999.0,  999.0,  999.0,  999.0,  999.0,  999.0,  999.0,  999.0,  999.0,  999.0,   -8.1,   -7.8,   -6.9,   -5.8,   -5.6,   -5.7,   -5.7,   -6.0,   -6.1,   -6.0,   -5.1,   -4.9,   -5.3,   -5.9,   -6.2,   -6.2,   -6.2,   -6.3,   -6.2,   -6.2,   -6.3,   -6.7,   -6.7,   -7.0,   -7.1,   -7.2,   -7.6,   -7.6,   -7.5,   -7.6,   -7.6,   -7.5,   -7.4,   -7.7,  999.0,  999.0
2011/03/14 23:10,   -0.0,   -0.5,   -1.5,   -2.6,   -3.5,   -2.9,   -2.7,   -5.0,  999.0,  999.0,   -4.8,   -4.8,   -4.5,   -3.8,   -3.4,   -2.2,  999.0,   -2.1,   -2.1,   -2.0,   -2.2,   -2.8,   -2.9,   -3.4,   -3.5,  999.0,   -2.9,   -2.8,   -2.5,   -2.5,   -2.4,   -3.0,   -4.0,  999.0,  999.0,  999.0,  999.0,   -5.6,  999.0,  999.0,  999.0,  999.0,  999.0,  999.0,  999.0,  999.0,  999.0,  999.0,  999.0,  999.0,  999.0,  999.0,  999.0,  999.0,  999.0,  999.0,  999.0,  999.0,  999.0,   -9.3,  999.0,   -8.6,   -8.8,   -8.7,   -8.1,   -6.7,   -6.7,   -7.0,   -6.8,   -6.9,   -7.2,   -7.1,   -6.2,   -5.8,   -5.7,   -6.1,   -6.4,   -6.3,   -6.3,   -6.4,   -6.2,   -6.1,   -5.9,   -5.9,   -6.2,   -6.4,   -6.6,   -6.8,   -7.0,   -7.5,  999.0,   -7.3,  999.0,   -6.7,  999.0,  999.0,  999.0,  999.0
2011/03/14 23:20,    0.0,   -0.8,   -0.9,   -2.4,  999.0,   -3.5,   -3.4,  999.0,  999.0,  999.0,   -4.4,   -4.3,   -4.3,   -4.4,   -3.0,   -2.3,  999.0,   -1.8,   -2.2,   -1.9,   -1.7,   -2.3,  999.0,   -2.6,   -3.0,  999.0,  999.0,   -2.0,   -2.3,   -2.4,   -2.6,   -2.9,   -3.9,   -3.5,  999.0,   -4.8,  999.0,   -6.0,  999.0,  999.0,  999.0,  999.0,  999.0,  999.0,  999.0,  999.0,  999.0,  999.0,  999.0,  999.0,  999.0,  999.0,  999.0,   -7.9,   -8.4,   -9.3,   -9.8,   -9.7,   -9.7,   -9.4,   -9.3,   -9.1,   -9.1,   -9.0,   -8.3,   -6.8,   -6.9,   -7.2,   -6.9,   -6.8,   -7.1,   -7.3,   -6.8,   -6.5,   -5.9,   -6.2,   -6.1,   -6.2,   -6.1,   -6.0,   -5.6,   -5.3,   -5.1,   -5.0,   -5.3,   -5.5,   -6.0,   -6.7,   -6.8,   -7.3,  999.0,  999.0,  999.0,  999.0,  999.0,  999.0,  999.0,  999.0
2011/03/14 23:30,   -0.3,   -0.7,   -1.0,   -2.3,   -3.2,   -2.8,  999.0,   -4.5,   -5.0,  999.0,   -3.7,   -3.6,   -3.5,   -3.6,   -2.5,   -1.6,   -1.1,   -1.3,   -1.4,   -2.0,   -1.5,   -1.8,   -1.8,   -2.4,   -2.0,   -2.2,  999.0,   -1.1,   -2.3,   -2.4,  999.0,   -2.8,   -3.4,   -3.4,   -3.9,   -4.9,  999.0,  999.0,  999.0,  999.0,  999.0,  999.0,  999.0,  999.0,  999.0,  999.0,  999.0,  999.0,  999.0,  999.0,  999.0,   -8.1,   -7.7,   -7.7,   -8.1,   -8.9,   -9.7,   -9.8,   -9.6,   -9.5,   -9.4,   -9.1,   -9.3,   -9.0,   -8.2,   -7.2,   -7.2,   -7.1,   -6.6,   -6.6,   -7.0,   -7.3,   -6.9,   -6.3,   -5.9,   -6.3,   -6.1,   -6.2,   -6.1,   -6.0,   -5.5,   -5.2,   -5.0,   -5.1,   -5.1,   -5.0,   -5.5,   -6.3,  999.0,  999.0,  999.0,  999.0,  999.0,  999.0,  999.0,  999.0,  999.0,  999.0
2011/03/14 23:40,   -0.1,   -0.1,   -0.7,   -2.2,   -3.1,   -1.6,  999.0,  999.0,  999.0,  999.0,   -3.8,   -3.5,   -3.3,   -3.6,   -2.8,   -1.9,   -1.6,   -1.3,   -1.8,   -2.5,   -2.1,   -1.8,   -2.3,  999.0,   -2.8,   -2.2,   -2.3,   -1.1,   -1.5,   -2.7,   -2.9,   -2.4,   -2.8,   -3.4,   -3.9,  999.0,  999.0,  999.0,  999.0,  999.0,  999.0,  999.0,  999.0,  999.0,  999.0,  999.0,  999.0,  999.0,  999.0,  999.0,  999.0,  999.0,  999.0,   -8.0,   -8.2,   -8.5,   -9.2,   -9.3,   -9.2,   -9.1,   -9.2,   -8.8,   -8.9,   -9.0,   -8.7,   -7.7,   -7.1,   -6.6,   -6.4,   -6.6,   -7.0,   -7.3,   -6.9,   -6.4,   -6.2,   -6.4,   -6.2,   -6.3,   -6.2,   -5.6,   -5.7,   -5.3,   -5.2,   -5.2,   -5.5,  999.0,   -5.4,  999.0,  999.0,  999.0,  999.0,  999.0,  999.0,  999.0,  999.0,  999.0,  999.0,  999.0
2011/03/14 23:50,   -0.0,   -0.1,   -0.8,   -1.8,  999.0,   -2.0,   -0.3,  999.0,   -5.3,   -4.0,   -3.7,   -3.2,   -2.6,   -2.8,   -2.1,   -2.2,  999.0,   -1.9,   -2.4,   -2.7,   -2.7,   -1.8,   -2.2,   -2.4,   -2.6,   -1.8,   -1.4,   -1.3,   -1.8,   -2.2,   -3.0,   -2.5,   -3.0,   -3.4,   -4.5,  999.0,  999.0,  999.0,  999.0,  999.0,  999.0,  999.0,  999.0,  999.0,  999.0,  999.0,  999.0,  999.0,  999.0,  999.0,  999.0,  999.0,   -7.8,   -7.8,   -8.3,   -8.0,  999.0,   -9.0,   -9.3,   -9.0,   -9.2,   -8.8,   -8.3,   -8.3,  999.0,  999.0,   -6.9,   -5.9,   -6.2,   -6.3,  999.0,   -6.8,   -6.7,   -6.5,  999.0,  999.0,   -6.3,  999.0,  999.0,  999.0,  999.0,  999.0,  999.0,  999.0,  999.0,  999.0,  999.0,  999.0,  999.0,  999.0,  999.0,  999.0,  999.0,  999.0,  999.0,  999.0,  999.0,  999.0
